GFSSGP_250_rhum_045.txt.gz
RH
15 13 14 13 10 7 6 6 6 6 6 16 16 6 50 20 9 19 100 100 79 84 18 13 25 21 13 12 13 14 13 14 16 18 18 19 19 19 19 18 16 16 16 15 14 12 12 12 10
16 16 14 12 8 7 7 7 6 7 6 100 65 7 28 29 10 27 100 94 86 88 40 18 15 19 18 17 15 15 15 16 17 19 22 20 18 19 17 15 14 15 15 14 14 13 12 12 11
20 17 14 9 8 8 8 8 10 10 10 22 15 8 8 8 9 10 76 92 62 94 85 47 23 26 21 20 19 16 17 17 18 21 22 21 18 18 16 16 15 16 15 14 14 13 11 12 11
21 19 13 9 9 10 11 11 9 10 12 12 10 9 10 9 10 10 22 100 86 95 100 100 100 50 26 26 19 19 21 24 23 22 19 18 18 18 17 18 16 15 16 17 16 14 13 16 16
26 20 11 10 10 13 14 12 10 11 13 14 12 10 9 10 11 11 10 16 99 91 98 100 86 82 63 46 32 32 39 34 23 19 19 17 17 17 21 22 24 24 24 21 19 16 16 17 18
28 15 10 11 15 16 17 13 12 13 13 13 12 60 53 11 12 14 18 20 100 80 98 100 88 95 82 76 73 61 35 29 32 24 29 22 28 35 38 36 48 40 44 32 25 20 21 28 29
19 11 11 17 18 23 20 57 13 13 13 13 13 12 12 13 18 17 19 25 51 85 94 100 90 65 56 50 78 74 41 36 51 50 48 50 46 44 58 62 69 70 75 48 38 38 38 38 54
14 12 15 20 25 27 20 16 15 15 25 18 13 13 28 25 34 45 37 26 36 86 100 100 100 98 87 100 100 100 99 100 97 85 78 78 75 100 98 81 79 82 69 64 62 52 43 44 48
16 13 21 22 30 28 23 22 21 19 20 17 15 14 78 54 51 44 47 48 58 100 100 100 100 100 100 100 100 100 100 100 100 82 100 100 100 97 98 98 92 80 66 62 54 48 58 64 64
16 15 23 27 30 33 43 49 54 40 23 62 16 15 21 44 63 63 44 49 66 100 91 100 100 100 100 100 100 100 100 100 100 100 100 100 100 100 100 100 100 100 84 64 74 71 89 70 59
17 24 30 41 48 56 73 86 97 53 100 100 100 22 22 43 32 60 49 74 91 100 87 100 100 100 100 100 100 93 100 100 100 100 100 100 100 100 100 100 95 90 90 84 89 87 81 73 73
18 33 38 54 95 94 88 81 80 78 100 100 100 46 67 35 38 49 36 67 92 94 90 100 100 100 100 100 85 100 100 100 100 100 100 100 100 100 93 100 100 100 100 86 74 75 64 85 69
19 38 56 84 87 88 92 76 85 57 87 96 76 100 88 93 97 60 58 47 58 73 100 85 100 100 100 100 100 100 100 100 100 100 100 100 100 100 100 100 100 100 89 83 68 90 95 66 86
20 40 64 96 94 83 82 92 92 65 43 73 100 100 100 100 93 66 43 40 31 90 100 100 100 100 100 100 100 100 100 100 100 100 100 100 100 100 100 97 100 100 98 100 98 87 92 99 100
21 41 77 80 81 85 94 99 90 99 80 100 100 100 100 86 100 100 48 40 32 63 100 100 100 100 100 98 95 100 100 100 100 100 100 100 100 100 100 100 100 100 100 100 100 84 94 90 94
22 44 89 94 94 81 100 100 84 94 100 99 97 100 99 71 97 82 85 97 52 59 92 100 100 100 100 100 100 100 100 100 100 100 100 100 100 100 100 100 100 100 98 98 93 82 88 85 84
25 50 78 71 100 90 90 96 89 100 100 88 88 100 87 95 100 100 100 100 100 80 97 80 81 92 100 100 100 100 100 100 100 100 100 100 100 100 100 100 100 92 97 86 73 88 78 65 60
27 46 62 77 100 100 100 87 100 98 88 100 92 100 85 100 100 98 100 100 100 100 100 100 100 100 100 100 100 100 100 100 100 100 100 100 100 100 100 91 72 91 79 78 83 94 89 71 72
30 47 65 72 82 100 100 73 62 70 80 100 100 100 95 100 100 100 100 100 86 100 92 100 100 100 100 100 100 100 100 100 100 100 100 100 100 100 100 94 87 86 73 62 67 82 81 66 59
33 29 66 64 74 78 98 74 89 64 66 100 98 100 100 100 100 100 100 100 87 100 100 100 100 100 100 100 100 100 100 94 99 98 100 100 100 97 89 84 75 60 50 61 71 63 53 47 42
31 33 42 72 66 69 87 80 78 86 67 80 75 100 100 100 100 100 100 100 82 62 95 100 93 100 100 100 100 100 100 98 96 94 96 90 82 70 60 53 65 68 62 57 48 48 45 41 47
34 33 26 56 72 66 71 99 84 71 78 90 76 100 100 100 100 100 100 100 100 52 96 62 50 62 74 90 94 94 95 97 96 98 85 64 62 57 53 54 49 51 51 50 47 47 54 69 63
35 31 32 25 64 76 71 70 86 88 86 71 78 93 100 100 80 99 100 92 79 94 81 57 69 51 44 52 68 68 70 81 80 74 53 57 65 56 45 44 48 58 58 54 60 75 90 94 82
45 34 33 31 32 77 78 74 76 88 99 100 87 81 91 83 96 100 100 100 100 100 99 92 85 83 90 100 87 90 87 80 76 76 85 72 62 45 54 57 48 50 58 76 71 93 88 65 57
55 37 33 34 33 33 74 81 79 81 89 83 96 94 82 83 100 100 100 100 100 100 100 97 96 90 94 84 70 71 86 73 71 80 93 98 79 56 44 46 75 100 96 75 83 81 71 70 78
61 48 36 34 34 34 30 55 84 75 66 80 100 75 81 96 70 73 79 69 62 60 59 56 56 52 52 53 72 100 99 89 99 98 100 96 84 100 100 96 100 100 100 100 95 87 84 88 85
65 59 46 36 35 33 31 30 46 72 68 66 78 88 83 80 85 88 89 82 67 57 57 60 59 60 61 67 69 100 100 96 91 84 79 78 96 100 100 100 100 100 100 100 100 100 95 82 92
70 66 60 45 44 32 34 32 32 51 61 66 61 65 82 98 92 88 79 82 87 83 84 84 80 71 66 65 64 62 73 100 100 100 99 100 100 100 100 100 100 100 100 100 94 94 88 93 90
70 68 73 51 47 39 33 34 37 41 42 61 61 57 58 61 66 78 96 86 76 77 81 85 91 89 83 63 48 53 54 69 100 100 100 100 100 100 100 100 100 100 100 100 100 98 95 80 67
78 50 66 66 50 44 32 34 28 37 51 40 59 62 61 73 65 61 68 65 72 74 72 78 73 69 65 64 44 50 50 60 76 100 100 100 100 100 100 100 100 100 100 96 98 84 78 71 71

GFSSGP_250_rhum_051.txt.gz
RH
72 54 50 44 37 32 22 14 12 10 8 8 8 7 6 7 6 6 6 7 100 100 100 82 75 66 100 100 100 87 26 16 14 15 17 16 14 15 19 17 17 15 14 11 11 11 12 12 12
72 50 44 37 34 22 20 15 11 8 8 7 6 6 6 7 21 9 7 7 89 100 98 100 97 88 100 100 99 100 100 100 63 28 15 18 19 19 20 20 22 17 16 13 12 12 14 13 13
54 43 41 33 29 23 15 12 9 7 6 6 7 8 8 60 57 94 97 15 100 98 97 100 99 100 100 99 98 91 98 100 100 68 18 15 19 22 23 21 20 21 19 18 15 15 14 15 14
56 44 32 25 21 16 12 10 7 6 9 9 9 12 58 76 88 100 100 100 100 100 90 100 100 100 75 84 82 88 100 100 100 100 64 29 16 18 24 22 21 22 22 21 18 17 16 17 17
44 35 27 19 15 13 10 7 7 11 14 12 11 38 95 76 96 100 98 100 100 99 98 98 83 76 98 100 81 77 66 100 94 100 100 100 74 30 27 29 26 25 25 21 20 20 20 21 20
42 33 23 18 13 10 8 9 15 40 23 19 15 100 100 85 98 100 99 100 100 96 79 81 82 99 100 97 99 100 68 100 100 100 95 91 84 60 33 30 38 45 42 38 37 29 31 24 22
39 27 21 15 12 9 10 16 45 24 54 98 28 95 100 100 100 100 100 100 100 100 71 100 60 100 100 100 100 100 70 100 97 100 100 98 92 85 68 43 41 51 61 46 49 42 40 41 42
47 23 23 14 10 11 16 24 17 23 52 100 99 72 100 100 95 100 100 100 100 100 100 91 97 100 100 100 100 96 100 100 71 90 96 84 100 100 96 91 77 81 77 77 68 70 66 76 64
36 26 19 12 11 16 22 30 34 93 93 84 100 100 100 99 100 100 100 100 100 100 99 83 100 74 85 92 99 100 100 100 100 100 100 96 100 100 88 100 98 100 94 87 84 80 79 75 65
25 29 16 14 14 21 36 77 100 100 100 100 100 99 94 74 100 99 97 100 91 100 100 100 100 100 100 100 100 100 100 100 100 100 100 100 100 100 99 100 100 100 93 85 92 78 72 74 97
44 25 18 15 22 26 35 92 98 98 100 100 96 100 87 100 100 100 100 100 95 82 100 100 100 100 100 99 100 100 100 100 92 100 100 100 100 100 100 100 100 100 100 100 95 98 99 100 100
58 34 20 19 35 33 53 71 100 100 100 98 93 64 70 74 73 84 78 92 68 100 100 100 100 91 99 100 100 100 100 100 88 76 100 100 98 95 88 95 100 100 100 76 99 100 100 100 100
79 26 23 28 35 47 99 100 100 100 100 99 100 94 71 55 52 58 29 27 51 78 100 100 100 100 100 100 100 100 87 100 91 90 99 80 100 100 100 100 100 100 95 76 96 94 93 100 100
73 45 26 63 49 42 83 100 100 100 100 100 98 73 84 53 45 67 46 50 39 39 69 100 100 100 100 100 100 98 100 99 100 100 87 73 100 100 100 99 100 100 98 100 100 100 100 100 100
92 37 24 64 58 60 56 70 74 100 77 73 93 91 76 65 71 60 48 52 58 62 41 82 100 100 100 100 94 100 100 100 100 100 80 66 100 100 100 100 100 100 100 100 100 100 100 96 100
97 29 23 32 64 72 63 84 66 71 82 96 79 98 56 61 69 57 44 55 53 81 98 100 100 100 100 98 100 100 100 74 79 87 92 100 100 100 100 100 100 89 93 100 100 100 100 99 93
97 38 26 25 46 54 56 70 57 88 100 99 90 100 96 83 74 80 61 40 38 58 98 100 100 100 95 100 100 100 100 96 82 88 100 100 100 100 100 100 100 100 100 100 100 100 100 100 100
93 65 30 25 25 53 67 98 100 100 77 100 100 100 82 71 100 93 81 58 58 76 97 100 100 100 100 100 100 100 100 100 100 99 99 92 100 100 100 100 100 100 100 100 100 100 100 100 92
98 60 36 26 25 28 61 89 100 100 100 48 76 100 60 89 100 84 74 73 58 72 100 100 100 100 100 100 100 100 100 100 100 100 100 100 100 100 100 100 100 100 100 100 100 93 100 100 100
65 47 56 32 27 22 29 57 66 100 100 73 57 98 90 100 100 100 100 87 88 64 67 66 71 94 100 100 100 100 100 100 100 100 100 100 100 100 100 100 100 100 100 96 100 96 81 74 86
36 37 93 46 30 27 21 36 42 68 73 100 73 60 76 100 100 100 100 100 100 100 89 66 59 66 82 92 99 100 100 100 100 100 100 100 100 100 100 100 100 100 100 100 90 83 77 82 80
44 44 49 41 36 29 27 23 48 73 67 75 92 100 71 87 100 98 100 100 100 100 98 92 64 88 84 75 91 86 89 100 100 100 99 100 100 100 100 100 100 100 89 69 84 81 73 67 62
46 44 42 38 37 31 29 28 24 47 57 55 83 68 83 89 100 100 100 92 100 79 92 100 100 100 99 100 100 100 100 100 100 100 100 100 100 100 100 98 91 94 100 92 66 68 63 48 47
96 55 42 31 47 34 29 29 28 27 27 57 61 50 92 77 90 100 100 100 100 98 77 55 48 85 100 100 100 100 100 100 100 100 88 86 84 82 83 77 84 100 88 61 56 43 41 37 46
59 70 52 39 36 36 34 34 29 28 28 51 70 57 56 69 76 98 100 100 100 100 100 77 69 44 44 56 60 74 90 76 64 52 52 77 100 93 84 95 100 100 99 82 60 44 47 66 74
78 100 96 48 35 39 36 40 34 29 28 27 35 56 67 58 68 95 90 100 79 77 100 100 100 100 98 74 74 60 55 60 65 76 87 87 83 77 96 100 100 100 100 98 84 94 100 100 100
77 91 96 77 46 33 31 51 44 38 30 25 25 24 45 62 55 81 97 91 94 72 97 100 100 99 98 100 100 92 76 69 62 66 73 76 68 69 78 100 99 100 100 100 100 100 100 100 100
100 66 100 93 67 41 30 45 64 45 36 30 29 29 25 24 46 50 56 66 75 89 92 88 73 57 63 68 49 49 54 68 70 65 67 63 71 82 100 89 81 91 99 100 100 100 100 100 98
100 77 100 88 86 45 42 58 65 63 42 34 31 30 34 36 21 34 51 57 60 79 80 59 88 84 88 100 84 82 66 75 96 99 89 89 93 91 93 72 79 100 98 94 89 92 98 100 100
62 60 100 100 78 53 60 45 45 58 52 37 34 31 28 29 43 38 25 33 46 63 91 75 100 100 94 100 100 100 80 100 100 97 100 100 100 98 75 66 49 53 60 64 99 100 100 100 100

GFSSGP_250_rhum_054.txt.gz
RH
60 72 90 92 80 64 44 28 22 21 17 16 14 10 8 8 8 7 8 9 8 12 17 100 100 88 95 100 100 100 100 100 100 85 26 18 18 19 21 21 19 17 15 14 14 14 15 18 19
70 79 83 77 52 44 37 28 21 18 12 9 8 8 7 7 17 18 16 8 8 19 40 94 93 100 81 100 100 100 100 100 100 100 100 68 28 19 19 24 24 21 20 20 18 15 19 20 19
77 72 58 50 42 38 27 21 16 11 9 8 7 6 6 7 9 9 22 28 18 31 62 76 98 83 100 100 94 90 99 94 92 100 100 100 100 95 61 30 19 18 18 21 22 21 21 20 19
72 70 56 45 39 27 20 14 11 9 8 7 6 9 11 12 12 80 31 21 24 90 74 91 88 100 79 100 95 95 99 100 100 100 100 100 100 100 100 100 85 25 17 17 20 22 21 22 19
81 59 42 34 25 20 15 12 10 9 7 7 10 14 18 30 90 100 100 37 26 83 96 100 100 100 100 80 100 90 100 100 95 86 83 97 98 87 92 100 100 76 28 18 18 18 21 24 24
59 42 35 28 27 17 12 10 10 8 11 12 14 17 64 100 84 95 86 62 50 100 100 96 97 100 97 100 100 100 99 98 79 58 62 84 74 95 95 95 100 99 76 46 39 26 24 30 38
41 38 39 63 21 14 11 10 15 19 28 19 14 60 90 99 96 86 97 100 100 100 100 100 98 89 100 100 100 100 100 99 100 85 89 92 93 100 100 96 86 82 82 81 68 56 42 44 48
57 49 88 23 16 12 11 22 25 33 38 14 32 100 99 100 100 100 100 100 100 100 100 100 99 89 100 95 100 100 100 100 100 100 100 89 83 87 85 98 96 88 87 85 91 82 74 74 100
60 89 34 23 16 13 16 48 59 70 62 30 100 100 85 100 100 100 100 100 100 100 100 100 100 100 97 100 100 100 100 99 100 100 100 100 95 77 96 97 100 87 80 80 78 86 100 98 89
80 39 42 22 17 14 19 55 74 70 92 67 100 100 72 96 100 100 100 100 100 100 100 100 100 100 100 99 100 100 100 100 100 100 99 90 79 74 100 95 100 81 82 74 73 82 86 72 70
38 46 44 29 20 15 26 88 100 100 100 100 100 100 98 98 100 100 98 100 92 100 100 100 100 100 100 100 100 100 100 94 100 100 100 91 77 84 85 67 82 59 80 67 59 78 87 65 88
27 81 70 22 31 27 35 100 100 100 100 100 100 100 100 100 100 100 100 94 82 100 100 100 100 100 100 100 99 99 100 100 100 100 100 100 100 98 100 77 48 42 38 84 75 77 84 78 82
39 83 45 22 31 62 48 100 98 95 97 100 100 100 100 100 100 100 100 90 65 92 100 90 96 100 100 100 100 100 100 91 90 98 100 100 100 98 100 80 56 46 48 68 84 76 79 75 85
42 76 28 23 32 65 43 98 93 77 70 82 94 94 92 92 70 74 100 100 82 80 100 95 100 100 100 100 100 100 100 98 100 100 100 100 100 100 68 72 75 83 78 92 91 88 97 100 100
68 68 32 28 23 46 66 90 80 62 60 50 59 65 63 64 48 47 45 45 51 40 69 100 90 100 100 100 100 100 100 100 100 100 89 100 100 100 67 48 51 100 100 99 96 100 100 95 85
88 58 27 39 26 27 66 76 64 46 40 46 38 44 42 49 50 58 46 42 40 33 26 72 100 100 100 100 100 100 100 100 100 98 95 99 100 100 82 62 77 100 100 100 100 100 100 97 80
34 75 29 50 27 38 63 58 56 43 41 43 45 62 52 56 63 60 47 44 40 48 45 44 62 98 98 100 100 96 100 100 100 98 100 98 100 96 73 65 84 88 99 100 100 100 85 68 64
32 38 32 47 31 26 49 64 54 47 41 63 67 69 84 78 83 88 56 47 41 65 68 71 41 90 100 100 100 100 100 89 95 100 100 100 85 93 70 77 100 100 100 99 96 76 100 88 86
40 40 38 30 27 29 35 59 62 90 100 93 73 64 99 88 79 97 76 57 45 45 53 100 79 58 100 100 100 100 100 100 99 93 100 97 100 100 100 98 98 97 100 100 100 100 100 100 100
46 41 46 60 26 26 29 36 60 69 94 99 81 66 85 83 73 96 86 77 67 43 47 70 100 100 100 100 100 100 100 100 100 100 100 100 100 100 100 100 100 100 100 100 100 100 100 100 100
67 45 46 40 28 33 27 30 33 38 60 95 82 63 64 98 69 82 81 93 80 86 65 75 100 100 100 100 100 100 100 100 100 100 100 100 100 98 89 83 97 84 76 88 100 96 100 85 97
45 58 47 50 31 29 29 30 30 27 41 54 62 67 71 96 100 98 84 100 89 100 100 100 82 83 87 91 86 96 100 100 100 100 100 100 100 95 100 100 100 100 100 100 100 100 100 96 92
34 52 58 53 44 35 34 31 33 32 31 36 47 50 66 91 72 94 100 92 100 97 79 100 100 100 96 98 76 100 100 100 97 100 100 100 100 100 100 100 100 100 100 100 98 88 84 62 78
56 51 33 41 58 54 35 25 36 36 31 31 37 40 51 71 66 66 89 100 91 93 100 92 87 98 100 100 100 100 100 100 100 100 100 100 100 98 100 100 98 94 84 87 77 76 61 50 45
78 58 44 72 98 37 51 46 23 41 37 31 32 36 44 49 60 81 63 96 100 89 79 91 62 57 63 68 63 69 83 99 89 83 83 98 100 99 91 84 71 58 73 74 79 85 86 85 71
92 63 51 44 100 67 60 58 25 32 39 34 33 33 30 35 45 61 85 61 88 100 100 100 100 100 96 62 60 37 40 57 77 64 63 68 77 79 71 71 74 87 90 100 100 100 100 100 100
93 70 60 53 100 100 83 66 34 28 26 32 33 34 39 41 31 46 56 66 61 84 94 99 100 100 100 100 100 100 100 100 95 96 82 67 64 70 64 62 62 68 65 72 72 81 83 81 98
100 87 68 74 77 90 99 74 35 36 30 26 28 33 33 44 48 43 48 50 64 81 85 87 84 68 89 98 92 98 100 84 62 93 100 100 100 98 87 100 100 88 77 92 100 100 100 100 100
100 100 79 58 48 100 100 90 42 40 41 34 26 26 29 27 32 47 49 47 41 53 72 83 89 99 100 100 90 85 66 60 94 100 100 99 99 97 100 100 98 68 66 84 94 96 96 94 100
90 81 80 66 83 75 96 96 44 56 63 51 36 28 27 28 28 32 38 48 50 46 43 47 60 97 100 99 99 100 90 100 100 100 100 100 100 100 84 100 90 70 99 100 92 99 98 100 100

GFSSGP_250_rhum_057.txt.gz
RH
38 45 42 56 45 51 59 59 51 46 39 28 22 18 16 16 16 14 11 13 13 10 9 11 14 12 19 73 66 87 85 93 92 94 100 100 100 100 70 40 28 47 57 51 44 31 28 23 23
56 43 46 67 84 85 67 54 43 33 26 20 16 15 12 11 9 8 9 10 13 9 10 11 15 12 56 100 100 100 100 100 100 100 100 100 100 100 100 80 42 30 42 34 39 29 28 24 20
71 88 98 88 68 66 58 56 42 20 18 14 12 11 9 8 8 8 8 8 9 45 13 13 13 46 100 100 78 100 100 100 100 100 100 100 100 100 100 100 84 38 29 19 18 20 20 20 21
89 76 100 86 88 77 57 34 23 18 14 11 8 8 7 6 6 6 7 7 9 16 19 14 17 100 100 84 100 97 97 100 100 100 100 100 99 99 100 100 98 86 86 63 38 25 20 25 25
65 67 87 94 60 47 32 23 18 13 10 8 7 7 6 7 8 8 8 7 8 15 12 20 100 100 100 99 100 83 100 100 100 100 88 100 100 87 75 87 87 84 82 82 66 51 56 48 48
51 54 58 42 47 32 27 20 15 11 9 9 12 14 15 17 32 58 26 17 13 19 17 21 100 100 100 100 95 100 100 100 90 100 77 100 96 81 71 72 73 94 86 89 76 63 67 62 65
51 54 52 50 48 44 28 16 11 12 13 15 21 25 72 100 100 100 69 29 38 32 58 47 100 100 100 87 100 100 100 100 100 100 94 100 82 71 69 62 74 80 81 86 80 74 61 51 45
63 65 65 73 77 35 18 13 14 22 36 29 32 92 100 100 100 100 82 53 67 100 100 100 100 100 98 100 100 100 100 95 100 100 100 100 100 80 65 64 49 69 58 56 41 37 32 36 51
81 89 90 70 31 23 16 12 33 41 82 64 28 100 100 100 100 100 100 100 100 100 100 100 100 100 100 100 100 100 100 100 100 100 87 100 100 68 88 78 53 49 45 39 41 39 38 34 54
100 91 50 29 33 25 15 22 32 59 100 75 19 97 100 100 100 100 100 100 100 100 100 100 100 100 100 96 100 100 100 100 99 99 98 100 94 96 82 58 59 47 40 44 42 41 38 34 48
68 33 23 53 35 18 20 40 63 81 92 84 29 99 100 100 100 100 100 100 100 100 92 100 100 100 100 100 100 100 100 100 100 100 100 96 93 93 85 59 59 54 55 41 36 38 31 27 35
38 23 61 41 20 20 24 58 94 74 74 94 62 100 100 100 100 100 100 100 100 100 100 100 100 100 100 100 100 100 100 100 100 100 100 100 95 100 98 76 68 63 61 48 48 44 37 35 39
40 26 75 27 29 26 25 54 100 100 93 98 84 100 100 100 100 100 100 100 100 100 99 100 100 100 89 100 100 100 100 100 100 100 100 100 97 100 100 93 85 76 70 64 57 61 66 82 66
28 41 53 43 34 25 42 62 100 100 97 79 85 88 100 100 100 100 100 100 100 100 100 100 100 100 100 100 100 100 85 94 100 99 99 99 100 100 100 100 100 100 99 86 88 98 100 100 75
30 41 26 62 47 24 22 71 100 100 95 94 89 78 95 100 100 100 99 100 100 100 100 100 100 100 98 100 100 100 100 100 100 100 100 100 72 62 100 100 100 100 100 75 63 92 100 94 63
33 24 26 61 33 26 21 31 54 100 79 71 69 73 71 94 95 100 100 93 86 74 83 100 100 100 100 100 99 100 100 100 100 100 98 96 100 100 100 100 100 100 100 88 67 88 98 87 67
33 24 24 31 36 26 25 24 41 90 85 54 46 36 47 57 96 98 100 99 96 95 59 76 98 61 51 55 67 77 93 100 100 100 99 93 100 100 100 100 100 100 87 91 76 80 61 66 76
29 27 25 28 30 35 26 28 25 56 70 53 48 36 46 31 50 69 79 77 73 68 69 63 60 60 68 53 48 41 74 79 100 99 100 100 100 100 100 95 93 100 100 98 95 86 88 96 92
28 32 30 29 30 30 31 31 24 25 60 73 47 65 60 76 45 54 50 51 49 51 46 48 42 37 38 68 84 68 53 45 82 100 100 100 100 100 100 99 90 99 100 100 100 100 100 81 77
33 41 31 22 35 30 36 33 30 25 27 50 73 96 69 73 71 60 61 49 48 47 39 45 46 56 78 55 100 100 98 100 97 100 100 100 100 93 96 91 81 94 100 100 95 90 91 100 100
39 58 30 29 26 39 43 31 29 27 26 23 42 69 84 71 64 51 74 78 72 60 45 35 43 52 77 90 84 97 100 100 100 100 100 100 93 81 100 95 100 100 100 100 100 100 100 100 100
61 59 33 36 37 37 64 42 39 32 27 26 27 50 57 52 50 71 66 87 76 69 78 61 64 87 100 100 99 95 100 100 100 100 100 98 100 98 100 100 100 100 100 100 100 100 100 100 100
77 77 43 52 41 36 56 54 61 40 28 26 26 28 47 50 60 76 92 78 98 74 86 83 73 82 88 100 100 100 100 100 100 98 95 95 100 100 100 100 100 100 100 100 100 100 100 100 98
92 100 72 64 54 35 40 50 65 45 28 26 24 26 28 47 52 78 74 87 79 86 71 87 91 91 100 100 84 71 72 76 100 100 100 100 100 100 100 100 100 100 100 100 100 100 92 80 74
99 100 96 75 62 39 46 66 87 47 29 28 28 28 27 26 46 48 51 60 95 100 72 74 58 68 60 63 87 100 100 100 100 100 100 100 100 100 98 97 95 93 91 86 82 74 66 67 70
61 61 100 90 75 57 44 88 72 66 41 27 26 27 27 27 30 40 48 63 66 79 100 97 64 56 56 50 64 75 85 82 96 94 96 83 90 97 100 100 91 87 77 85 77 83 96 95 77
54 78 85 66 99 84 42 63 65 80 56 44 43 26 29 27 26 30 38 50 51 74 74 98 100 100 95 68 92 100 90 89 100 97 93 100 88 100 100 96 90 73 72 55 57 55 75 80 96
49 98 62 88 100 99 46 47 94 72 69 65 58 54 43 29 27 26 25 32 40 51 58 62 71 85 96 100 100 100 100 100 100 95 85 74 86 86 73 52 48 55 57 59 53 65 64 56 49
59 90 100 100 100 100 70 50 46 73 50 74 75 70 64 52 28 30 29 27 33 35 44 50 63 80 83 91 86 84 94 86 78 68 65 61 56 87 85 99 92 87 100 89 83 85 75 56 86
88 68 76 100 100 100 74 61 52 51 52 52 79 95 73 53 55 30 28 31 28 27 38 43 45 53 60 72 77 90 80 87 86 70 49 48 70 94 100 96 100 99 100 100 100 71 99 100 100

GFSSGP_250_rhum_060.txt.gz
RH
22 22 25 34 46 44 40 33 42 49 49 44 43 35 30 24 18 18 16 18 18 16 15 15 17 18 24 20 17 16 36 42 72 47 70 66 59 53 80 89 98 80 68 49 56 50 34 24 24
20 18 20 30 67 71 58 75 62 51 41 34 29 27 20 15 14 14 12 11 11 16 17 17 16 14 21 16 14 14 16 16 42 49 100 100 98 64 50 72 84 83 86 61 57 61 53 36 26
18 17 19 32 45 87 59 75 73 65 43 22 19 14 14 12 10 9 8 8 9 20 23 44 38 26 19 19 11 16 17 55 100 100 100 100 100 97 94 100 96 87 95 84 73 63 53 35 28
16 17 16 27 29 28 38 48 49 34 24 19 17 14 12 10 8 7 7 7 12 22 27 25 32 30 16 19 13 20 43 84 100 98 100 100 100 100 100 100 100 94 89 93 84 90 90 73 47
14 15 17 18 18 30 38 32 28 26 16 16 12 9 8 8 7 7 6 6 18 48 14 21 27 20 26 14 20 43 74 100 100 100 100 100 98 100 100 100 100 90 83 67 64 70 68 67 69
14 16 17 25 43 55 44 38 31 20 14 13 9 8 10 11 15 11 8 7 13 52 19 41 35 42 15 28 63 97 94 100 100 100 100 100 100 100 93 100 99 83 70 70 60 59 75 75 58
18 22 46 61 67 58 68 49 27 16 16 12 10 13 28 25 53 26 14 14 18 28 23 13 36 42 48 75 66 100 100 100 100 98 100 100 100 100 86 86 91 61 56 62 58 62 49 39 34
53 68 74 70 87 84 52 25 17 18 13 12 14 42 84 50 81 86 70 47 32 28 33 67 97 83 89 100 95 100 100 100 100 100 100 100 100 100 100 70 71 48 43 38 31 38 44 35 30
92 65 84 91 44 38 26 28 20 15 18 21 28 79 100 100 100 100 94 82 74 64 83 100 100 100 100 100 100 100 100 100 100 100 100 100 100 100 68 91 57 49 44 28 27 24 27 32 29
83 74 87 42 30 40 37 21 16 18 20 40 62 95 100 100 100 100 100 100 91 100 100 100 100 100 100 100 100 100 100 94 100 85 100 100 100 86 100 96 83 60 36 34 28 29 30 34 34
88 77 50 30 45 46 24 17 18 22 33 50 94 93 100 100 100 100 100 100 98 100 100 100 100 100 100 100 100 100 100 100 100 98 100 100 100 100 100 99 78 54 43 38 34 40 36 38 43
55 66 31 33 59 25 23 16 18 46 55 69 100 98 100 100 100 100 100 100 100 100 100 100 100 100 100 100 100 100 100 100 100 100 100 100 100 99 100 100 61 38 62 53 50 47 53 48 50
46 45 31 62 34 24 22 18 21 82 76 100 90 69 100 100 100 100 100 100 100 100 100 100 100 100 100 100 100 100 100 100 100 100 100 100 100 100 100 100 88 66 89 78 66 72 80 77 57
39 44 24 32 28 26 23 21 27 75 94 97 96 76 90 100 100 100 100 100 100 100 100 100 100 99 100 100 100 81 100 100 100 100 100 95 100 100 97 88 75 58 58 87 91 96 90 92 87
39 50 25 27 28 24 24 24 26 42 73 91 81 86 66 99 100 100 100 100 100 100 100 100 100 100 100 100 100 100 100 95 100 100 100 100 100 97 77 76 57 47 97 100 100 100 100 100 100
49 47 23 27 28 28 26 25 24 28 55 74 56 60 75 75 100 100 100 100 90 94 100 100 100 100 100 100 100 100 100 100 100 100 100 100 100 100 96 83 68 89 100 100 100 100 100 100 97
34 35 25 28 27 28 28 26 25 24 38 84 75 75 62 58 90 100 100 100 100 100 80 100 100 100 100 100 100 98 88 100 94 97 100 100 100 100 100 100 100 100 100 93 100 100 100 100 87
50 38 26 26 28 26 25 24 29 25 24 35 56 83 65 39 40 89 100 100 100 100 100 86 90 100 100 100 100 100 100 87 92 97 72 68 87 100 100 100 100 100 100 100 100 100 98 94 76
66 45 27 30 28 29 29 23 30 36 27 25 26 44 52 50 59 47 77 90 100 100 99 92 87 76 86 94 100 100 97 88 66 63 87 100 100 100 91 98 100 100 100 100 100 92 98 83 69
64 60 30 34 27 38 35 25 38 45 31 26 21 25 42 56 73 67 45 72 82 85 93 99 82 79 66 60 57 69 65 64 71 72 69 67 88 99 100 100 100 100 100 100 100 100 81 76 95
60 57 33 39 33 47 42 32 28 49 32 27 25 23 31 46 62 71 53 58 49 56 80 83 89 74 68 64 60 49 41 41 42 92 91 84 96 100 100 100 100 100 100 100 100 93 100 100 100
80 46 57 57 48 53 52 36 28 52 42 27 26 25 22 37 48 52 51 59 61 64 65 61 68 75 70 62 52 49 60 58 62 59 100 100 100 100 100 100 100 100 100 100 88 100 100 100 100
71 56 69 69 88 63 67 41 34 33 59 30 25 27 25 23 41 45 48 58 81 85 94 68 56 56 46 47 48 47 61 83 100 100 100 100 100 100 100 100 100 100 98 77 100 100 100 100 100
63 85 95 74 99 100 78 50 52 34 50 40 32 26 26 25 24 37 49 68 90 92 100 100 84 64 55 70 90 84 74 99 100 100 100 100 100 100 100 100 100 100 100 100 100 100 99 100 94
46 60 70 85 100 100 90 70 87 41 45 48 44 44 41 26 26 26 31 46 70 87 77 89 96 100 100 81 69 91 98 100 100 100 100 100 100 100 100 100 100 100 100 96 92 90 84 80 67
31 26 51 69 84 100 95 93 76 55 47 46 45 53 57 50 27 26 28 27 40 51 89 91 60 54 63 79 79 74 83 94 95 100 100 100 100 99 98 95 93 82 79 82 92 82 69 56 44
50 33 37 31 51 100 100 100 100 66 39 44 39 53 66 48 44 40 28 27 30 35 48 67 98 85 64 63 56 54 54 58 67 81 72 65 64 53 58 63 67 76 69 69 63 48 37 34 30
56 54 41 48 44 100 79 100 100 83 57 46 56 36 50 67 53 42 31 27 27 32 35 40 53 67 97 100 97 84 49 45 64 88 81 71 75 84 85 80 72 68 59 51 43 30 23 25 35
84 73 65 69 62 60 100 100 100 99 81 67 56 42 37 48 67 56 47 40 26 27 27 35 37 43 48 69 89 100 100 100 100 100 100 94 87 89 78 80 61 42 33 33 37 45 59 65 98
83 64 56 45 66 60 100 100 100 100 79 88 69 63 49 43 58 85 68 50 46 27 29 30 28 40 40 44 57 66 73 74 73 67 69 75 74 87 92 75 66 53 55 62 94 100 99 100 100

GFSSGP_250_rhum_063.txt.gz
RH
23 17 17 16 14 16 16 17 17 19 18 26 26 20 24 30 29 26 23 23 29 26 24 19 20 23 26 27 24 27 26 26 29 30 51 36 25 34 66 76 73 72 80 68 50 58 68 56 38
20 17 16 15 17 17 16 18 20 25 30 24 18 16 17 21 18 11 10 10 12 17 13 13 15 19 19 18 22 24 30 30 34 31 26 26 29 50 100 81 82 78 69 68 72 75 71 75 71
20 17 16 15 17 15 15 15 17 18 17 16 15 14 16 16 15 11 10 9 10 11 14 9 15 16 15 16 20 19 27 29 28 26 18 19 42 71 100 100 85 75 64 53 60 82 72 61 62
17 16 14 13 13 13 14 15 16 19 19 20 18 16 21 21 14 9 8 7 7 12 10 44 64 61 59 35 24 22 23 21 23 22 16 17 100 90 100 86 92 91 100 99 99 83 72 65 65
18 16 15 14 14 15 16 22 29 31 28 20 20 20 15 11 10 8 7 8 7 12 22 25 48 66 41 40 43 50 34 30 26 19 18 84 100 100 100 100 100 100 100 95 81 71 53 60 60
19 18 16 20 19 27 41 42 41 38 23 20 13 12 11 14 12 10 9 12 31 42 41 28 21 30 43 32 70 68 59 32 26 17 59 100 100 100 100 100 100 100 100 85 69 62 59 65 64
20 18 24 51 45 60 48 57 44 20 16 14 12 13 22 21 48 31 30 23 58 78 94 86 63 35 30 48 73 77 82 30 74 100 98 97 100 100 100 100 100 100 93 83 65 59 49 52 44
20 39 84 75 69 64 56 42 25 20 17 14 14 27 50 71 89 69 62 66 59 89 74 93 68 84 82 72 63 60 98 100 100 100 100 100 100 100 100 100 100 100 83 56 44 44 28 29 32
22 42 98 85 78 57 44 34 32 23 16 15 22 43 81 100 100 90 91 84 70 87 100 100 96 100 68 33 31 89 100 100 100 100 100 100 99 100 100 100 100 92 48 34 31 26 25 22 18
26 32 69 77 66 44 38 43 28 18 17 19 47 71 99 100 100 100 100 94 84 96 100 100 97 95 100 100 85 100 100 100 100 100 100 100 93 100 100 96 76 58 44 32 25 25 22 23 22
34 35 60 64 56 29 60 33 20 18 17 29 58 90 100 100 100 100 100 100 89 100 100 77 93 100 100 100 100 100 100 100 100 100 100 100 100 100 100 86 68 57 46 32 28 26 27 26 34
43 35 52 57 32 42 36 23 21 17 18 31 56 83 100 100 100 100 100 100 98 81 90 85 93 100 100 99 100 100 100 100 100 100 100 100 100 100 97 84 84 91 70 80 36 28 26 27 38
34 37 61 54 25 26 24 24 21 18 18 30 58 67 99 100 100 100 100 100 100 100 100 100 100 94 94 100 100 100 100 100 92 94 84 85 100 100 100 100 100 77 100 87 47 38 30 29 39
45 46 55 49 24 22 24 24 22 19 19 37 57 75 80 100 100 100 100 100 100 100 100 100 93 100 100 100 100 100 100 100 100 93 74 97 92 100 100 100 100 91 88 67 54 47 56 61 45
52 58 51 57 23 24 23 25 23 20 20 37 61 65 64 98 100 100 100 100 100 100 100 100 100 100 100 100 100 100 100 100 100 100 100 99 74 89 89 96 68 70 78 74 80 76 75 99 100
31 76 77 53 23 24 23 24 26 22 23 24 50 60 50 83 98 100 100 100 100 100 100 100 100 99 100 100 100 100 100 94 100 100 100 100 95 81 100 100 87 92 93 100 100 100 100 100 100
27 99 55 43 26 23 24 24 31 25 25 23 25 49 42 68 91 99 100 100 100 100 100 100 100 100 100 99 98 96 76 97 100 97 100 100 100 100 100 100 100 100 100 100 100 100 100 98 100
36 64 62 61 35 24 31 27 41 29 23 25 22 24 40 34 67 82 96 98 100 100 100 100 100 100 100 100 100 100 87 84 100 100 100 99 96 100 100 95 81 80 78 92 100 99 99 94 98
37 50 64 68 38 25 38 34 36 36 25 24 24 23 22 36 30 46 78 92 98 100 100 100 100 100 100 88 100 100 100 98 77 96 100 100 100 100 100 100 100 100 99 96 100 100 100 94 97
44 53 48 57 43 30 43 42 34 39 31 23 23 23 22 24 33 31 41 68 84 91 100 100 100 99 100 100 100 100 100 91 100 80 76 77 62 67 78 77 99 100 100 100 100 100 100 98 100
46 58 41 47 53 40 44 51 37 40 36 26 23 25 24 23 27 35 36 33 62 75 78 82 86 96 97 93 100 95 97 97 95 91 88 89 75 59 60 54 68 100 100 100 100 100 100 100 100
59 28 65 87 52 48 58 59 51 40 40 37 31 27 36 24 25 29 38 41 40 58 78 77 85 82 83 86 88 96 83 75 69 59 62 61 54 61 71 72 90 100 100 100 100 100 100 100 100
80 47 92 89 82 52 68 72 83 50 48 42 36 38 45 30 25 26 34 39 39 45 48 70 75 76 70 73 71 76 86 80 66 63 64 72 64 73 100 100 100 100 100 100 100 100 100 100 100
100 49 79 78 61 74 61 89 93 75 64 39 42 37 38 43 35 26 28 35 44 50 56 71 69 60 63 71 69 65 63 70 79 74 73 77 76 88 100 100 100 100 100 100 100 100 100 100 100
100 37 57 70 91 100 65 100 96 75 69 52 34 43 40 44 34 37 25 27 34 57 72 59 58 80 88 88 86 100 86 77 78 84 100 100 100 100 100 100 100 100 100 100 100 100 100 100 100
100 31 26 62 69 84 73 100 99 77 75 85 39 40 38 40 52 50 39 29 26 34 51 80 76 76 89 85 75 80 91 94 100 100 100 100 100 100 100 100 100 100 100 100 100 95 88 75 58
88 40 42 34 33 49 57 100 100 93 82 95 60 40 41 40 33 44 55 39 27 25 29 39 94 93 72 65 72 70 84 95 99 98 99 100 100 100 100 100 100 88 56 56 67 66 62 46 44
98 64 43 33 46 65 56 63 100 100 96 94 92 54 41 42 41 36 56 62 42 28 26 28 37 62 98 100 93 67 70 71 66 55 52 55 69 69 68 61 61 64 74 95 80 68 67 47 37
100 99 88 62 62 69 73 71 92 100 100 100 100 97 61 47 44 41 40 61 56 46 33 33 27 28 35 42 62 89 97 79 71 59 56 56 63 94 100 92 78 95 98 95 87 71 69 57 35
94 97 83 94 92 91 96 100 100 98 100 100 100 91 81 60 51 56 46 47 57 52 52 42 37 27 27 28 36 36 42 63 86 85 83 90 85 82 82 75 97 100 98 96 58 51 38 50 58

GFSSGP_250_rhum_069.txt.gz
RH
28 28 27 19 17 15 13 10 12 10 11 11 10 11 11 10 10 10 10 10 13 16 19 31 19 15 14 16 20 21 21 19 19 20 25 32 35 32 34 39 37 36 34 32 29 38 50 45 47
30 30 24 21 19 17 16 13 14 14 12 12 12 11 11 10 10 10 10 10 10 10 10 11 10 10 11 17 18 20 22 22 25 32 31 45 51 49 48 52 52 48 44 38 38 54 67 65 70
35 31 26 24 22 24 22 15 16 15 14 13 12 12 11 11 11 10 10 10 10 10 9 10 12 9 9 10 15 23 30 25 26 33 43 58 74 64 64 54 51 49 43 38 44 84 74 55 56
38 37 32 28 26 24 28 19 19 17 15 15 16 15 13 12 14 16 15 14 11 9 9 7 10 10 14 34 69 26 32 38 30 31 34 40 59 55 57 57 54 48 36 35 39 66 60 77 61
48 44 43 40 35 29 27 22 19 21 25 36 32 25 16 21 15 13 12 10 9 9 8 9 15 16 16 100 96 96 99 100 100 100 60 47 44 36 35 39 42 40 34 66 57 87 90 86 75
79 61 52 52 45 32 28 24 21 24 38 44 32 21 17 14 12 11 10 10 11 16 10 19 56 65 45 99 68 98 96 100 100 100 100 100 79 30 36 30 36 32 31 44 91 100 99 84 71
58 82 71 51 43 35 28 24 20 26 40 30 24 17 14 12 12 11 10 13 20 25 24 30 42 61 65 34 99 100 100 100 100 100 100 100 100 51 70 23 26 29 50 82 99 100 98 86 69
47 46 41 40 44 40 30 23 22 35 34 28 16 16 16 13 12 12 20 38 59 53 49 75 100 86 39 90 95 100 100 100 100 100 92 99 73 36 33 27 28 39 100 100 100 100 100 100 74
42 49 44 40 47 42 30 22 32 34 32 22 16 17 16 14 19 38 77 49 75 69 98 100 100 80 50 97 99 96 100 100 80 100 100 73 58 62 44 35 27 81 99 100 100 100 98 91 82
46 46 39 45 52 39 25 28 37 28 25 19 18 18 17 15 32 85 90 65 83 84 100 100 100 100 95 100 100 100 100 100 78 75 72 88 84 65 38 56 100 100 84 100 100 100 94 82 72
54 43 35 44 51 39 25 27 35 26 21 19 19 18 18 16 57 91 100 100 82 100 100 100 99 87 100 100 100 100 100 100 82 85 98 86 51 31 65 100 100 100 100 100 100 99 94 79 40
52 36 33 53 48 38 26 30 33 22 20 19 20 19 20 38 67 82 98 100 88 100 100 100 100 76 71 100 100 100 100 99 97 100 100 100 100 100 100 96 99 100 100 100 100 98 69 50 30
57 34 35 57 48 36 32 37 31 22 21 22 20 19 25 62 79 85 87 100 81 100 100 96 100 100 100 98 100 100 100 100 100 100 100 100 100 100 100 93 100 100 100 100 100 69 44 54 34
53 33 44 62 52 35 37 33 34 27 23 23 22 21 23 64 82 96 99 100 100 85 100 100 100 100 100 100 100 100 100 100 98 100 100 100 100 100 100 100 100 100 95 90 57 43 48 44 37
44 37 41 73 52 35 43 27 44 26 24 25 23 22 21 63 75 95 91 100 100 100 100 100 100 100 100 98 99 100 100 100 100 100 93 100 100 100 82 80 91 100 95 60 63 65 77 64 61
41 34 58 67 50 33 45 27 42 26 27 26 22 22 21 48 54 85 94 99 85 100 100 100 100 100 100 100 100 100 98 100 100 100 100 100 100 100 100 93 100 100 100 100 100 100 78 61 75
32 40 74 77 50 31 40 30 36 28 32 25 24 22 22 25 64 67 94 90 97 100 100 100 99 98 100 98 100 98 100 77 94 94 98 97 95 100 100 96 95 99 100 98 94 87 82 66 56
39 45 77 97 52 37 36 24 40 34 37 28 26 28 22 22 30 63 81 89 100 95 98 100 100 89 100 100 96 96 100 100 100 93 93 100 100 100 100 100 100 80 94 100 85 87 86 74 58
36 40 100 95 52 45 52 39 44 40 42 38 29 27 27 20 20 28 53 98 67 86 100 100 100 94 94 95 99 100 100 100 100 100 71 100 100 100 100 100 98 76 71 94 75 74 83 86 100
27 76 100 88 46 63 51 54 56 38 46 42 38 30 30 26 21 20 31 89 92 74 92 100 99 100 94 92 100 88 100 100 100 100 100 82 50 96 100 100 99 100 100 99 96 100 100 100 100
41 99 100 72 49 74 57 62 63 49 50 47 45 29 32 30 23 21 22 35 82 83 71 91 92 91 100 82 91 96 100 100 100 99 99 88 90 76 61 70 94 100 98 100 100 100 100 100 100
65 100 100 60 50 88 81 63 38 49 55 57 56 43 32 35 26 22 21 22 58 75 82 76 95 99 92 100 100 100 98 87 92 100 91 95 78 62 53 57 48 44 57 70 94 100 100 100 86
99 91 100 60 54 99 100 54 39 61 49 79 73 55 39 30 31 28 29 23 21 36 63 81 64 81 93 88 86 100 85 100 92 83 90 94 87 81 98 98 82 83 96 100 100 97 94 86 100
97 79 100 55 78 99 100 68 45 74 51 64 88 71 55 34 28 29 29 30 23 22 33 37 67 70 71 79 91 99 100 81 89 85 91 64 92 97 100 95 93 95 92 89 90 99 99 98 98
92 87 98 58 95 100 99 71 71 64 66 61 74 87 56 47 31 32 26 27 30 23 23 34 36 34 43 67 76 77 83 90 87 86 86 86 95 88 81 77 76 83 90 98 100 100 100 100 100
100 100 100 82 100 100 76 52 65 52 93 69 61 85 73 44 45 31 27 25 27 30 25 24 33 40 40 41 62 75 74 63 72 74 87 81 86 86 90 86 94 94 100 100 100 100 100 100 99
98 95 100 85 95 100 76 79 48 82 100 91 80 63 80 70 56 53 37 32 27 28 29 27 24 31 46 64 67 78 72 64 59 73 91 76 87 82 87 87 91 71 89 93 96 100 100 100 100
100 100 100 78 78 100 100 100 60 91 100 100 100 100 100 96 56 61 54 47 34 33 32 29 32 24 24 30 56 66 67 78 87 85 94 100 100 100 100 93 100 100 100 100 100 100 100 100 100
100 100 100 100 97 100 100 100 100 66 63 77 96 95 75 97 99 46 98 78 65 48 33 35 34 35 34 24 24 43 82 82 68 66 62 66 84 100 100 100 100 100 100 100 100 100 100 100 100
100 100 100 100 100 100 100 100 100 58 45 42 76 57 38 45 100 100 100 54 99 92 61 29 37 43 32 32 33 27 25 28 39 74 94 98 69 65 73 75 88 100 96 69 62 76 90 84 92

GFSSGP_250_rhum_072.txt.gz
RH
34 39 35 34 36 32 30 20 16 15 11 13 13 11 10 10 9 10 15 12 8 9 11 11 12 12 14 18 19 15 15 14 14 14 15 15 16 20 23 22 25 28 24 25 26 27 26 28 29
33 35 34 37 36 39 34 25 15 16 14 14 14 13 11 10 11 10 10 9 9 9 10 9 9 10 11 16 18 20 28 20 14 13 15 22 20 25 32 38 38 41 44 43 48 46 42 40 37
36 35 32 44 47 45 45 44 31 24 16 18 16 15 13 12 12 10 11 12 11 10 10 10 8 8 9 10 9 11 18 10 14 20 21 19 21 27 29 44 54 46 59 68 62 61 56 49 40
38 31 33 36 49 65 57 54 34 31 18 22 19 17 14 17 17 16 17 16 14 14 11 9 9 10 8 8 9 39 43 73 99 96 34 42 61 53 37 50 58 54 61 56 64 62 57 41 35
32 36 37 40 48 60 64 60 36 30 25 23 20 18 15 16 21 17 14 13 12 10 10 9 8 8 11 10 28 99 100 100 100 100 100 100 96 100 100 69 63 73 76 68 66 58 49 48 56
38 41 35 36 40 44 46 36 41 32 28 27 20 17 16 18 16 14 12 11 10 9 9 9 10 9 24 25 74 100 100 80 90 100 100 100 100 100 100 100 72 59 69 65 40 46 42 53 81
37 42 49 46 40 42 41 30 42 36 31 26 20 20 22 16 14 12 12 10 10 10 12 16 10 55 34 47 98 98 100 100 96 100 98 100 100 100 95 96 100 72 55 39 40 40 50 88 94
40 41 48 54 45 45 41 31 44 37 34 23 24 25 18 14 16 13 12 12 14 17 26 26 43 55 88 100 99 87 97 100 100 88 100 100 100 83 65 76 100 99 41 41 38 36 100 84 100
53 48 51 57 55 46 44 34 44 39 35 22 28 25 16 15 15 14 14 17 39 52 58 49 73 77 100 87 95 93 100 86 100 100 100 100 85 63 50 81 96 96 29 32 36 95 100 100 100
58 53 51 51 51 54 52 36 43 46 35 23 30 19 17 16 15 15 20 48 93 79 68 91 79 89 89 96 84 100 100 100 100 100 100 99 73 52 54 77 81 89 34 38 87 100 100 100 100
55 52 46 45 61 47 53 38 49 50 36 27 27 17 18 18 16 18 28 83 100 92 86 100 80 100 84 99 98 100 100 100 100 100 100 96 58 64 70 61 52 46 35 55 100 100 100 100 100
45 40 40 40 45 44 54 41 62 49 31 33 20 20 21 19 16 21 54 89 100 88 78 100 79 86 100 100 100 100 100 100 100 100 94 99 77 62 66 63 48 62 76 100 100 100 100 100 100
38 35 40 32 50 52 49 46 67 47 32 31 21 23 24 19 17 21 59 91 100 91 92 75 91 100 100 100 100 100 100 100 100 100 100 88 77 92 62 76 79 85 99 100 100 100 100 100 96
28 31 31 31 52 50 47 50 64 44 36 26 24 25 24 19 18 23 70 83 100 88 98 62 83 100 100 98 100 100 100 100 96 100 100 82 74 60 64 100 100 100 84 85 100 100 100 94 76
21 27 41 38 51 44 44 75 63 42 38 24 26 25 22 20 19 30 82 91 99 69 100 93 92 85 91 100 94 100 100 100 100 100 100 79 59 62 64 96 100 92 100 95 100 100 92 73 63
24 32 43 59 40 48 41 90 61 44 34 28 29 26 26 21 20 24 77 100 82 100 84 100 100 100 100 98 100 100 100 100 100 100 99 80 67 74 100 100 100 100 100 100 100 96 100 100 68
26 40 50 49 44 51 42 72 54 47 30 31 33 26 26 24 21 19 51 100 70 88 95 100 100 100 100 100 100 100 100 98 100 90 96 96 84 90 100 84 79 99 100 99 100 100 90 48 60
32 41 50 63 46 41 52 73 43 55 32 36 38 32 27 25 23 20 22 97 79 88 100 100 98 100 100 97 96 79 100 100 100 100 95 100 100 100 100 87 77 98 100 100 91 65 76 80 97
34 40 60 49 42 34 68 78 43 54 37 38 41 35 26 24 25 20 19 47 79 81 98 100 100 100 100 100 99 97 86 100 100 100 86 100 100 93 100 100 100 100 97 100 83 100 100 95 87
36 46 56 38 50 55 96 80 47 55 41 43 41 41 29 27 24 20 20 18 69 100 66 98 100 74 100 92 100 100 100 100 100 100 61 85 73 69 95 86 73 84 98 91 98 100 100 99 91
43 51 53 60 85 98 95 78 57 49 49 43 47 46 35 32 24 24 20 18 22 76 78 88 88 99 66 72 92 96 93 100 100 100 99 54 63 70 100 100 100 100 100 100 100 100 85 82 100
45 100 99 100 100 100 100 87 60 48 60 42 49 54 47 30 29 28 30 24 19 24 95 76 94 92 100 48 76 91 100 100 96 100 100 100 100 100 98 64 58 62 68 78 64 64 77 87 100
96 100 100 88 100 100 100 85 64 49 67 45 48 65 61 31 31 28 28 27 23 21 31 95 96 94 100 100 69 57 89 98 99 100 100 100 100 100 100 99 88 82 71 50 46 50 51 85 99
100 100 98 84 100 100 100 84 74 50 58 51 50 61 79 44 35 30 30 25 25 22 21 25 68 97 95 100 98 100 100 79 72 85 90 84 96 92 82 80 72 67 73 64 74 97 95 100 100
100 100 88 88 100 100 100 80 86 53 46 88 54 51 67 58 39 35 32 27 23 27 23 22 25 51 79 88 88 96 100 100 100 89 85 82 66 59 61 66 97 96 100 100 100 100 100 100 100
100 100 92 98 100 100 100 79 98 55 39 100 88 54 60 66 51 44 40 37 29 23 25 24 23 23 32 48 82 86 84 83 84 96 100 99 98 87 92 78 86 82 85 100 100 100 100 100 100
100 99 100 100 100 100 100 88 88 70 43 94 100 70 68 69 67 56 50 46 39 38 25 27 24 26 23 30 34 42 57 61 67 72 83 80 83 78 89 85 84 70 97 94 99 100 100 100 100
100 100 100 100 100 100 100 97 100 96 59 58 92 80 94 93 65 57 56 46 49 60 36 29 30 30 29 24 25 28 36 39 44 52 65 69 78 82 92 94 100 100 98 94 96 98 89 93 100
100 100 98 100 100 100 100 100 100 100 80 60 77 100 100 81 100 100 100 98 45 96 58 61 56 29 34 31 28 26 28 40 51 62 65 67 68 67 67 96 80 84 87 97 94 74 100 87 96
100 100 100 100 100 100 100 100 100 100 97 76 70 72 100 100 100 94 65 100 100 100 73 100 99 68 27 34 31 29 33 33 27 28 39 53 76 79 66 66 70 99 100 100 100 100 100 100 100

GFSSGP_250_rhum_075.txt.gz
RH
24 24 22 21 25 25 25 26 24 25 23 21 18 13 10 8 8 9 8 7 8 9 8 9 11 11 10 13 11 11 14 13 14 13 12 12 12 12 13 14 15 18 18 19 18 19 24 26 28
23 27 28 27 28 28 28 32 33 36 30 23 19 14 11 9 10 10 11 9 10 10 9 9 9 9 9 9 10 11 12 13 14 17 22 21 22 24 16 18 19 21 23 22 21 23 30 33 38
23 22 25 27 31 31 32 29 30 32 28 25 26 15 13 10 11 13 14 14 10 10 11 9 9 8 8 8 9 9 9 10 12 13 26 21 15 18 20 23 23 27 36 32 30 40 47 57 63
22 24 22 30 34 39 36 35 34 38 34 32 27 17 13 13 16 17 12 13 15 12 12 10 9 8 8 8 9 9 13 9 13 93 99 91 100 100 55 40 37 39 42 43 44 57 72 92 92
22 19 20 25 35 37 38 34 33 34 36 31 26 18 14 15 17 16 16 17 14 12 11 10 9 9 9 8 24 14 43 82 100 100 87 91 100 100 100 80 84 93 78 58 53 66 81 97 83
33 28 21 20 29 36 38 38 38 34 40 35 24 19 15 18 18 16 18 16 14 12 11 10 9 9 14 10 53 83 83 96 74 72 100 89 100 100 100 100 100 100 100 100 86 88 86 68 62
24 23 21 24 25 32 42 37 33 40 34 35 24 20 18 24 22 21 16 14 13 11 11 9 9 8 10 12 53 100 100 100 100 100 100 98 100 100 97 97 100 100 99 94 100 90 68 54 42
26 25 27 38 42 42 48 35 32 39 34 34 26 23 19 21 24 21 17 14 13 11 11 12 10 10 41 57 41 100 100 100 100 100 100 100 100 100 100 100 100 97 84 65 100 86 64 40 54
25 26 29 30 38 47 44 38 40 39 38 42 29 25 34 24 22 18 16 13 13 14 16 24 19 23 89 85 62 100 100 92 100 100 100 100 100 100 98 86 84 62 45 75 96 72 42 45 98
31 44 34 29 29 32 42 40 41 35 39 44 32 26 32 30 20 20 16 14 14 20 33 36 50 86 98 100 73 97 100 96 100 90 100 100 100 100 99 92 53 37 51 93 90 69 37 61 100
28 42 42 46 41 36 34 46 45 27 33 44 38 31 33 24 20 18 16 16 20 49 63 67 79 100 100 100 100 100 100 100 100 100 100 100 100 100 99 75 38 46 64 58 57 36 37 99 100
41 43 48 57 48 35 36 38 36 25 42 42 42 35 31 22 21 18 17 17 26 82 86 95 96 100 100 100 100 100 100 99 100 100 100 100 100 100 94 61 39 39 61 55 41 34 100 100 100
82 81 58 54 35 27 29 31 30 30 47 39 49 42 30 22 19 17 18 19 41 94 100 76 96 100 100 100 100 100 100 95 100 100 100 100 100 100 71 56 44 43 42 47 34 69 100 100 100
32 32 41 29 28 27 26 32 33 48 46 39 47 41 26 22 23 19 18 23 54 90 100 81 75 88 100 100 100 100 100 100 100 100 99 100 100 84 83 60 50 38 41 47 33 83 100 86 100
27 27 23 23 26 29 30 35 49 47 42 51 45 38 28 24 23 21 19 27 61 94 100 69 64 84 100 100 100 100 100 100 100 100 100 100 92 84 89 100 85 40 46 39 54 99 67 54 100
29 20 21 24 24 23 26 42 58 50 36 60 49 30 29 26 25 20 19 22 62 93 100 66 66 87 100 100 100 100 100 100 100 100 100 99 70 64 60 77 82 73 78 76 87 92 50 77 100
22 19 18 19 18 25 28 53 61 48 47 56 49 30 33 27 23 24 19 19 63 84 100 59 66 75 99 100 100 100 100 100 100 100 92 97 98 90 78 70 63 92 90 75 67 49 84 100 100
20 16 16 17 20 25 36 53 72 39 72 61 46 33 38 27 28 23 18 18 35 98 87 82 85 78 100 100 100 100 100 100 100 100 98 100 100 100 93 73 70 89 85 78 61 85 93 100 100
18 15 16 19 20 27 25 43 59 40 87 59 45 37 40 30 27 23 20 18 22 100 96 71 86 72 100 73 100 100 100 100 100 100 100 100 100 100 95 89 98 65 70 95 86 74 100 100 83
15 14 19 29 34 37 44 61 41 47 100 65 48 39 42 38 27 24 22 21 17 52 100 87 100 69 93 87 99 94 100 100 97 100 100 100 100 100 100 85 49 98 54 48 99 100 100 100 88
16 20 24 33 43 38 41 54 35 66 100 58 51 39 43 44 31 27 24 23 20 24 90 100 99 84 66 98 100 44 42 55 74 100 100 100 100 81 95 100 100 76 80 69 71 91 100 95 100
24 24 28 32 40 30 48 51 42 86 100 62 55 44 45 50 41 28 25 24 22 19 23 86 97 80 56 56 100 97 87 62 56 90 75 80 86 87 81 86 91 82 66 59 90 95 100 100 100
37 28 35 34 48 40 61 62 100 82 90 66 55 58 45 56 48 28 26 23 23 23 19 22 96 100 81 100 87 100 96 100 100 89 100 100 80 68 81 60 61 77 95 93 89 91 82 70 44
54 36 45 53 44 39 90 98 100 94 73 68 69 69 52 57 60 37 28 25 22 22 24 20 45 100 98 100 100 97 88 70 92 100 95 79 100 100 98 82 100 100 100 100 100 96 82 59 64
52 48 66 50 34 92 100 100 100 86 63 62 80 61 57 55 67 50 34 29 25 22 21 23 20 34 99 96 100 100 100 95 77 94 100 100 100 100 100 100 100 100 100 98 88 75 71 79 86
73 84 46 41 54 100 100 79 100 83 56 58 87 70 69 54 60 70 58 42 35 25 30 21 21 20 24 70 100 100 100 100 100 100 98 97 96 90 92 88 79 92 83 71 64 65 69 86 88
100 100 94 56 89 100 100 99 92 81 59 74 92 62 78 83 56 63 68 62 39 38 29 32 22 20 21 20 33 89 100 100 100 99 100 100 100 100 100 100 84 100 96 92 76 100 100 100 100
100 100 100 59 98 100 100 100 94 92 74 89 81 80 92 99 64 64 61 64 45 47 43 47 39 50 24 23 22 22 30 45 73 88 91 99 99 94 89 94 89 90 100 100 100 100 100 100 100
100 100 100 72 100 100 100 100 100 100 92 78 93 93 83 89 79 83 87 95 95 99 75 55 77 58 50 28 29 27 24 24 30 41 53 66 74 72 76 84 86 93 92 100 100 100 100 100 100
100 100 100 81 100 100 100 100 100 100 100 82 88 100 64 71 80 61 74 100 100 90 100 100 100 100 100 94 35 30 29 36 32 26 26 31 38 44 48 48 50 56 65 92 100 100 100 76 73

GFSSGP_250_rhum_078.txt.gz
RH
40 36 36 31 25 22 21 19 20 20 20 18 18 18 17 16 18 16 12 11 10 9 8 8 9 8 9 11 13 14 11 10 12 13 15 14 11 10 11 13 14 16 18 18 18 18 18 19 21
40 38 29 35 26 23 20 19 19 20 21 21 23 25 23 24 19 17 14 12 10 9 9 8 9 9 8 9 8 8 10 10 10 12 14 13 14 13 14 17 17 15 16 16 17 18 19 21 25
36 28 27 35 32 24 21 19 18 19 20 24 22 22 19 23 22 18 15 13 10 9 10 9 10 10 9 9 9 8 8 9 9 9 10 10 12 17 22 26 26 26 27 28 26 26 28 34 40
26 30 26 34 34 22 20 19 21 24 26 26 26 25 21 20 22 18 14 13 11 13 11 11 10 10 10 10 10 10 9 9 9 9 10 16 50 55 74 56 84 69 41 35 39 37 39 50 64
36 34 33 32 35 31 26 24 23 21 21 28 26 24 24 24 22 17 16 15 14 15 14 13 12 11 10 10 9 9 8 15 18 23 56 90 84 92 100 100 100 100 77 52 53 50 47 58 75
49 52 42 36 30 26 24 24 20 17 24 24 23 25 25 26 23 17 18 15 14 15 15 14 12 10 10 9 10 55 97 100 100 100 79 96 100 100 100 100 99 100 90 87 94 93 92 92 84
76 57 42 32 28 27 28 22 19 22 25 39 37 24 24 28 23 21 26 19 16 16 16 13 12 10 9 8 18 100 100 100 100 100 100 100 100 98 100 100 100 97 79 88 90 94 88 100 100
61 49 38 30 27 27 30 22 23 24 24 30 40 29 26 29 30 24 30 20 18 16 15 14 12 11 10 10 37 92 100 100 100 100 100 100 100 94 100 96 99 95 95 90 72 73 55 100 100
66 65 51 37 32 29 30 25 27 37 31 26 30 30 29 26 27 23 29 24 19 15 14 14 15 15 15 13 38 100 100 98 100 95 100 100 100 100 100 100 97 100 76 78 50 51 49 96 100
52 44 41 40 31 29 29 35 38 32 30 38 45 27 29 31 31 32 26 22 19 16 14 15 30 30 33 51 56 100 100 100 100 100 100 100 100 98 100 100 100 100 88 43 28 28 45 100 87
54 49 40 34 31 32 49 51 63 74 65 55 48 26 27 30 31 32 26 22 19 16 14 16 41 61 74 100 100 100 100 100 100 100 100 100 100 100 100 87 96 97 60 47 37 42 68 90 55
48 43 34 31 28 28 57 72 51 44 46 43 34 27 25 32 35 39 26 21 19 17 15 22 62 78 100 100 100 89 100 100 100 100 98 100 100 100 100 100 88 83 70 50 33 32 76 78 44
46 41 30 28 27 35 60 35 41 36 31 26 25 33 32 35 38 33 24 19 20 16 20 42 75 98 100 100 95 83 100 100 100 100 100 100 100 100 100 100 82 81 71 46 34 27 34 54 37
42 35 31 32 49 56 36 37 39 27 30 26 31 37 44 35 38 29 23 19 21 16 25 70 68 89 97 100 100 96 100 100 100 100 100 100 100 100 100 100 88 74 58 41 34 24 28 31 99
51 43 37 38 53 25 33 32 22 25 29 28 38 49 44 46 35 28 22 20 21 18 31 79 62 99 92 100 100 100 100 100 100 100 94 82 100 100 100 100 95 69 53 36 28 30 29 85 100
52 37 37 38 30 32 37 21 20 23 25 32 41 47 54 47 30 27 22 23 18 17 39 71 78 87 78 100 100 100 100 100 100 100 100 100 100 100 100 100 98 77 51 36 34 29 30 81 100
50 33 25 37 43 39 21 18 19 19 19 29 54 40 61 49 34 27 23 23 18 17 51 90 84 91 93 87 100 100 100 100 100 100 100 100 99 100 100 96 76 78 68 52 52 42 38 42 100
39 34 42 52 45 21 15 17 16 15 22 31 46 52 59 48 35 31 24 20 19 18 28 84 81 80 78 100 100 100 100 100 100 100 100 100 100 100 100 92 87 82 78 79 72 65 63 51 97
46 36 38 39 36 21 17 18 19 18 21 44 40 62 53 39 36 26 24 24 21 18 24 58 95 100 69 92 100 100 100 100 100 100 100 100 100 100 94 98 80 86 71 72 100 100 100 100 90
42 33 34 35 24 16 14 19 17 21 34 50 46 52 50 41 34 26 26 24 23 19 18 68 99 100 90 82 100 100 100 100 100 100 100 100 100 100 99 100 80 84 73 75 89 100 91 81 95
30 32 34 32 18 14 15 24 19 26 40 47 61 50 47 44 42 32 27 24 25 22 20 44 96 91 100 98 100 100 100 100 100 100 100 100 100 100 96 99 98 92 75 80 65 62 76 60 83
38 36 30 23 14 12 23 30 29 40 46 70 73 49 51 44 44 44 28 26 24 24 22 23 91 98 100 98 76 94 97 99 100 100 100 100 100 97 100 100 94 90 100 100 83 67 58 54 72
48 29 26 18 15 22 27 34 50 41 88 100 100 59 59 47 42 45 34 26 23 23 22 21 20 79 100 100 86 100 100 98 73 98 100 100 95 97 100 100 100 89 98 86 95 83 79 73 59
40 27 21 17 17 30 31 43 45 45 100 100 100 69 68 58 46 45 45 29 22 22 22 21 20 21 95 95 73 73 88 100 99 93 90 80 94 90 100 100 100 100 80 69 51 55 66 62 95
32 25 19 19 21 40 39 51 46 84 94 100 100 77 70 64 60 49 53 37 27 23 23 20 20 20 52 100 84 56 50 64 96 96 100 96 100 100 88 68 58 47 47 41 60 49 82 90 94
27 22 20 28 34 60 53 66 55 90 86 100 100 83 66 75 68 54 50 39 34 34 28 25 22 20 20 33 100 97 75 71 65 91 90 100 100 100 100 73 78 79 86 97 98 99 100 100 100
26 23 40 41 42 95 71 100 100 45 96 100 100 88 76 80 74 56 49 52 43 43 31 32 35 31 37 21 20 40 100 97 100 100 94 67 71 88 100 100 100 100 100 100 100 99 100 89 87
26 40 46 45 51 99 66 100 88 54 99 100 100 92 90 85 78 61 50 50 58 52 40 42 45 55 58 43 23 22 23 74 100 100 100 100 100 96 97 93 100 97 90 90 92 93 90 98 100
31 42 61 54 83 100 68 100 69 76 82 100 100 100 100 100 90 89 76 55 56 56 61 79 81 66 85 93 36 29 23 23 23 40 75 94 87 90 94 96 100 100 100 100 100 100 100 100 100
33 96 78 56 92 100 88 100 74 54 74 100 100 96 100 100 99 99 96 66 56 68 91 65 84 100 100 100 100 95 42 27 25 23 23 28 39 48 63 77 80 79 83 81 82 84 74 89 100

GFSSGP_250_rhum_081.txt.gz
RH
54 54 51 48 47 45 44 43 33 26 22 18 17 16 15 15 13 12 11 10 9 10 12 11 10 10 9 8 8 8 7 7 7 6 7 8 7 8 9 11 14 13 15 16 17 18 19 20 20
58 58 53 53 43 45 45 33 27 30 25 21 18 16 16 18 16 14 14 12 10 10 11 11 12 11 10 9 8 8 8 7 7 8 9 10 13 12 12 13 13 14 15 16 15 16 17 19 20
69 62 58 56 40 38 34 27 35 33 28 22 23 22 21 20 19 18 16 15 13 11 11 12 12 12 11 10 10 9 9 8 8 8 9 9 9 11 11 13 14 15 18 20 22 21 20 22 24
68 67 67 63 37 39 32 27 27 26 26 26 22 21 20 18 18 19 20 16 15 14 13 13 13 13 12 11 11 11 10 10 10 9 10 10 10 11 12 15 18 23 31 28 31 34 32 30 32
75 73 65 35 36 48 40 38 33 26 23 23 21 19 20 19 18 22 22 20 18 16 16 18 16 13 12 12 11 10 10 10 11 12 100 14 23 22 33 51 38 64 86 100 89 59 44 43 42
82 86 68 52 48 60 51 47 39 26 21 20 22 23 26 24 24 27 24 23 22 18 17 18 16 14 12 12 11 29 28 30 49 44 84 68 88 99 100 100 100 100 98 100 100 83 60 61 54
90 79 73 63 76 84 60 51 37 30 27 26 23 22 26 35 30 29 24 19 21 18 19 23 19 15 13 11 10 12 61 96 100 100 86 100 100 93 100 100 100 99 100 100 91 92 95 84 73
93 84 67 62 70 96 68 55 36 32 33 32 27 26 28 38 31 38 28 17 23 20 24 24 20 16 13 11 14 21 37 100 100 100 100 100 100 96 100 99 100 92 100 100 92 79 86 63 56
76 60 52 62 86 94 84 54 41 33 35 33 26 24 35 46 58 54 41 21 22 23 25 23 19 17 13 12 11 24 73 100 100 100 100 100 100 100 100 100 100 87 82 100 100 96 62 47 44
84 72 88 98 92 86 69 50 46 37 30 30 25 30 48 40 37 38 30 26 21 23 27 20 18 16 13 12 15 72 100 100 100 100 100 100 99 100 99 87 100 100 100 88 65 55 45 36 38
81 98 100 100 95 81 63 61 54 36 32 26 24 30 39 50 46 32 28 27 26 29 24 20 18 16 14 14 21 72 100 100 100 100 100 92 100 100 100 100 99 100 100 94 75 49 43 36 34
100 100 96 88 85 76 63 51 39 27 27 27 27 45 48 44 32 29 25 37 30 33 23 21 18 16 18 34 38 89 100 100 100 100 100 97 100 100 100 99 100 100 97 56 72 66 45 35 30
63 61 58 57 57 52 43 39 36 28 28 32 40 34 39 42 34 32 35 44 39 27 23 20 17 18 28 81 72 99 100 100 100 100 85 91 100 100 76 85 100 88 72 73 82 57 48 33 28
69 70 64 54 60 53 35 38 32 33 45 38 36 39 36 31 31 40 46 47 36 26 22 18 18 20 44 99 100 100 100 97 98 100 91 97 100 89 100 99 100 95 96 82 56 72 45 34 27
95 91 100 93 77 52 44 32 29 54 74 44 38 33 29 26 32 37 63 46 30 25 21 18 18 26 68 91 100 100 82 100 98 98 100 100 100 89 99 100 100 100 100 76 63 41 32 31 26
100 77 68 72 57 55 46 28 46 56 40 36 33 22 22 27 34 37 58 39 28 24 20 18 18 58 72 78 94 100 94 93 100 100 100 100 100 100 100 100 98 100 100 84 75 65 49 34 30
64 55 56 70 72 46 38 30 40 40 33 22 18 19 21 27 35 51 46 32 30 21 19 18 22 65 80 79 82 100 100 100 100 100 100 100 100 94 100 100 100 99 88 77 76 64 47 38 31
68 58 57 63 62 47 29 32 34 35 18 18 18 20 26 28 40 51 37 34 24 23 21 18 28 56 68 89 86 100 100 100 100 100 100 100 100 100 100 100 100 100 86 92 74 55 45 38 41
91 59 50 56 46 34 32 34 36 32 16 19 17 30 28 39 48 42 34 31 25 25 20 18 23 75 63 91 98 100 100 100 100 100 100 100 100 100 100 98 100 100 100 100 81 71 45 63 57
74 62 67 50 43 34 31 31 26 19 16 19 29 33 32 50 47 37 38 26 27 23 22 19 20 58 61 80 92 100 100 100 100 100 100 100 100 100 100 100 99 100 100 98 86 71 64 81 100
58 57 51 46 32 33 29 24 23 16 17 25 28 30 41 57 40 40 29 27 26 26 23 21 20 48 64 66 94 99 100 100 100 100 100 100 100 100 100 100 100 100 98 95 90 80 78 86 100
57 56 45 41 30 32 25 24 17 14 22 36 30 46 68 52 39 40 33 28 29 26 24 22 20 62 95 85 97 90 100 100 100 100 100 100 100 100 100 100 100 100 98 95 100 87 86 76 94
57 50 52 42 30 30 27 19 20 18 40 51 54 92 86 72 43 45 39 32 34 28 24 22 21 19 86 96 99 100 97 100 100 100 100 100 100 100 100 100 100 99 100 100 100 100 100 100 78
67 52 46 31 31 30 24 21 15 37 73 81 72 100 86 100 52 45 46 40 34 31 26 20 21 20 21 79 100 100 99 100 100 100 100 100 99 100 97 92 100 100 99 100 100 92 100 92 98
60 45 40 34 31 30 20 25 18 64 80 100 65 84 62 90 60 44 50 52 39 34 27 23 21 21 21 36 97 100 97 100 100 100 100 100 100 100 100 100 100 100 100 100 100 100 100 100 91
48 41 42 34 32 27 16 31 48 82 89 85 58 65 72 67 68 44 47 57 60 40 30 28 25 23 21 22 95 100 99 98 100 100 100 87 89 100 100 81 90 98 99 100 100 94 85 96 99
55 51 42 38 30 22 29 66 64 78 76 62 63 81 93 60 80 59 49 57 66 50 36 32 31 34 40 42 22 52 100 100 100 85 85 89 99 100 94 100 100 100 94 93 81 73 75 80 74
64 51 52 30 25 24 52 82 70 74 69 70 94 100 96 62 65 68 84 61 62 59 45 40 37 44 50 67 45 26 22 42 96 92 80 97 99 100 100 100 100 100 100 100 99 96 100 98 100
53 51 52 27 24 30 88 99 76 69 79 98 100 100 90 71 70 77 83 67 63 65 53 50 54 63 72 73 82 41 33 29 24 32 80 100 100 100 100 100 100 100 99 100 99 100 100 100 100
55 54 35 27 26 42 85 100 90 77 88 100 100 100 100 68 62 75 71 77 66 56 52 53 64 100 100 100 100 100 70 48 38 27 24 24 29 74 100 100 100 100 100 100 100 100 100 100 100

GFSSGP_250_rhum_084.txt.gz
RH
80 78 67 58 57 56 51 48 48 48 46 43 44 37 28 21 18 18 17 15 14 11 10 10 10 10 10 10 10 9 8 8 7 7 7 7 7 7 8 8 8 10 12 14 16 18 19 19 20
94 84 79 72 60 59 57 58 55 51 50 51 42 28 21 21 18 18 18 16 14 13 12 11 10 10 11 10 10 11 11 10 9 7 7 7 8 9 10 14 11 9 9 10 12 13 17 18 19
100 99 84 74 69 74 73 65 58 54 52 42 30 24 22 22 21 22 20 18 16 15 14 12 11 11 12 14 12 12 12 13 17 9 8 7 8 9 10 16 11 14 19 15 15 17 17 18 19
100 100 94 83 73 75 78 72 64 64 61 35 30 29 26 26 24 22 20 18 18 18 15 14 13 11 13 13 13 12 12 11 10 10 10 11 9 10 10 12 12 26 18 30 19 19 24 23 23
100 100 98 94 81 78 76 74 73 63 41 30 27 28 28 27 25 26 25 24 22 24 20 19 16 13 13 14 14 14 12 13 13 11 22 61 33 64 16 39 33 48 34 37 29 30 31 36 33
100 100 100 100 94 84 84 82 77 63 47 41 41 32 31 31 32 31 30 24 22 25 24 23 20 16 17 15 15 15 19 23 36 22 15 79 94 100 83 70 89 94 100 100 98 98 100 97 58
100 100 100 100 99 98 98 93 84 71 62 47 35 32 31 37 38 37 30 25 27 33 33 24 22 18 16 17 17 15 13 11 13 74 19 100 94 100 98 100 100 100 100 100 100 100 100 80 55
100 100 100 100 100 100 80 82 85 80 58 41 34 40 40 35 35 34 30 26 26 26 29 21 24 20 18 18 19 16 12 14 28 100 33 92 100 100 100 100 100 100 100 100 100 100 92 76 79
100 94 100 100 100 100 92 81 71 59 57 54 51 56 45 41 40 34 30 27 26 34 27 24 24 22 22 21 21 14 11 14 90 100 78 85 100 100 100 100 100 100 100 100 100 100 90 74 64
94 94 100 100 97 92 72 68 86 70 69 57 46 52 46 40 30 32 30 29 30 23 28 24 25 31 30 26 19 13 19 76 100 100 100 99 100 100 100 100 94 100 100 100 81 97 82 60 50
96 96 98 100 92 81 92 98 98 99 72 51 54 66 59 43 32 32 31 41 42 25 29 23 32 46 32 22 16 14 13 93 100 100 100 100 97 100 100 100 100 96 100 100 88 82 87 52 42
88 100 93 93 100 100 100 89 100 90 67 66 60 51 43 31 32 28 37 43 44 31 26 28 46 42 25 19 16 16 16 90 100 100 100 100 90 100 100 96 100 96 100 100 100 100 64 40 53
99 92 91 93 92 83 69 84 77 58 61 56 40 36 29 27 30 31 52 43 40 35 26 39 55 30 21 19 17 21 28 83 100 100 100 100 94 100 100 90 100 90 88 100 100 66 49 49 38
87 77 78 67 74 69 67 60 49 66 53 37 34 32 29 31 43 42 39 34 30 29 32 61 42 25 21 18 17 63 65 69 100 100 100 99 89 100 100 100 99 100 76 80 57 61 52 59 59
99 93 92 98 97 96 88 58 61 47 43 43 38 31 32 44 50 38 34 29 24 28 47 57 29 24 22 17 23 100 100 100 100 100 100 100 88 87 90 97 100 99 100 94 80 91 70 54 34
100 100 88 90 88 79 59 64 65 60 41 46 45 40 38 46 39 33 33 24 26 44 58 38 27 25 19 16 46 97 100 100 100 92 84 96 96 92 92 97 85 84 80 48 93 98 57 42 61
62 62 52 61 79 80 97 53 53 50 40 38 40 40 39 28 28 30 28 22 36 62 49 30 28 20 17 20 74 90 100 99 98 78 84 83 100 100 100 100 100 92 82 100 95 94 76 76 70
100 81 91 98 100 95 60 40 39 36 42 42 44 42 31 23 27 22 20 32 76 57 33 31 24 18 18 36 71 88 100 100 90 96 100 99 100 100 100 100 100 70 100 100 100 100 82 75 56
100 100 100 100 100 80 57 41 40 35 45 39 38 25 25 23 19 20 29 66 69 35 34 24 20 20 19 54 97 86 100 100 96 100 100 100 100 99 100 100 100 100 100 100 100 92 92 62 56
83 94 97 93 91 69 75 47 42 50 46 42 33 27 22 20 19 20 38 69 39 33 28 22 22 20 20 59 91 91 100 100 99 100 100 100 100 96 100 100 100 100 100 100 90 87 79 74 77
87 77 81 72 71 51 50 42 57 52 49 34 32 26 21 22 17 28 67 49 32 29 26 24 22 19 22 54 83 97 100 100 100 100 100 100 100 100 100 100 100 100 100 100 100 100 100 99 90
73 65 67 63 62 55 48 44 52 55 46 28 30 22 21 23 29 47 59 34 30 30 25 24 22 20 41 53 71 84 100 100 100 100 100 100 100 100 100 100 100 100 98 100 100 99 100 100 100
100 81 64 56 55 44 50 45 49 63 28 30 24 23 23 33 41 72 38 32 30 33 26 25 22 21 20 65 68 97 100 100 87 100 100 100 100 100 100 100 100 100 100 93 100 99 100 96 100
94 90 87 79 64 63 79 38 43 76 26 23 19 22 34 48 56 50 34 36 30 37 27 28 24 20 20 24 73 89 100 100 100 96 100 100 100 100 100 100 100 100 100 100 100 100 99 100 100
100 100 87 77 76 83 82 44 46 47 23 19 21 26 44 56 65 41 38 38 39 40 27 32 33 24 19 23 50 86 94 100 100 100 100 100 100 100 100 100 100 100 100 100 100 97 100 100 100
95 99 100 74 79 86 65 46 50 30 25 21 23 34 45 73 60 42 42 41 56 41 28 35 38 29 24 20 45 96 97 100 100 100 100 100 99 100 100 100 100 100 100 100 100 91 87 83 100
100 100 85 82 78 73 49 51 52 22 28 30 30 61 74 84 53 41 42 47 52 48 38 36 40 37 34 40 24 82 100 100 100 100 100 100 100 100 100 100 100 100 100 100 99 99 100 100 100
97 92 82 79 78 56 55 51 47 21 33 37 42 85 94 81 60 44 43 49 54 52 55 49 41 39 43 53 51 28 48 100 100 99 100 100 100 100 100 100 100 100 100 100 100 100 100 100 100
96 90 78 72 66 52 61 54 36 24 47 45 64 100 100 80 61 53 45 49 52 58 62 70 46 43 45 54 71 58 29 26 55 100 100 100 100 100 100 100 100 100 94 92 99 98 91 86 78
77 81 76 70 63 57 57 44 37 32 49 59 100 100 99 86 63 64 54 45 47 56 57 78 69 64 59 72 87 89 93 38 31 27 29 60 98 100 100 100 100 100 100 100 100 100 100 100 100

GFSSGP_250_rhum_087.txt.gz
RH
65 59 67 67 62 62 65 53 55 53 51 52 46 45 46 44 38 37 28 22 18 18 15 15 14 13 12 11 10 9 9 9 8 8 8 8 8 8 8 8 8 8 9 9 10 12 14 16 18
60 70 76 82 81 82 91 76 70 67 65 58 55 56 56 51 50 44 27 24 24 23 18 17 16 14 14 11 11 11 10 11 10 10 9 9 9 8 8 8 8 8 9 9 9 9 11 12 15
60 74 78 85 100 100 96 80 79 75 71 66 58 66 64 56 56 42 28 27 28 23 20 20 19 17 14 12 12 12 11 18 18 15 18 16 15 12 8 9 8 9 9 12 15 17 15 12 12
82 93 96 96 100 100 100 90 80 81 75 62 62 72 69 60 52 35 28 32 27 25 26 23 22 20 16 14 13 14 12 12 17 29 24 21 16 12 9 35 63 40 35 22 25 53 46 24 21
70 83 100 100 100 100 100 94 84 82 78 61 61 70 68 63 46 35 42 36 32 30 27 26 27 24 19 15 15 15 14 16 16 17 16 25 14 15 16 38 68 72 52 36 41 48 56 43 32
97 100 100 100 100 100 100 100 90 87 74 61 71 77 70 60 54 51 40 41 48 38 33 32 31 26 21 18 16 15 14 16 18 17 17 44 68 57 77 61 99 82 67 73 72 58 52 44 44
99 99 100 100 100 100 100 100 100 87 77 74 72 76 75 56 58 50 44 55 53 44 36 33 28 26 24 19 16 16 15 17 20 34 45 22 35 79 77 100 100 94 88 81 86 94 74 94 100
100 90 100 100 100 100 100 100 100 93 82 66 69 75 70 64 61 52 53 55 57 46 34 29 29 28 25 20 18 17 15 19 20 26 29 16 34 42 100 100 100 100 100 100 100 100 100 100 94
100 100 100 100 100 100 99 100 100 90 73 83 87 79 62 58 64 63 52 56 56 49 42 34 30 27 27 22 18 18 18 22 20 16 14 18 53 62 92 100 100 100 100 100 100 100 99 100 89
100 100 100 100 100 100 98 100 97 79 91 93 84 73 63 68 67 60 64 62 59 47 37 30 26 29 29 27 19 18 25 22 17 18 28 52 58 56 100 100 100 100 100 99 100 96 100 95 72
100 100 100 100 100 100 100 100 98 100 100 87 84 73 58 70 77 66 55 50 46 38 33 31 28 27 29 28 20 21 29 19 15 43 76 100 100 86 100 99 100 100 100 72 85 100 100 100 87
100 100 100 100 100 100 97 100 100 95 88 100 72 54 54 55 51 48 46 38 39 38 32 32 29 31 31 27 23 33 23 18 16 89 100 100 100 100 100 100 100 100 99 95 87 88 100 98 87
100 100 100 100 100 100 100 100 83 68 100 81 48 47 54 46 44 39 39 37 42 41 36 29 30 30 29 29 31 28 20 17 16 95 100 100 100 100 100 100 100 100 100 86 73 81 100 100 62
100 96 100 100 100 100 81 79 53 87 79 65 70 60 41 44 42 40 38 38 48 45 33 25 28 27 26 34 36 23 19 18 16 85 100 100 100 100 100 100 100 100 87 79 73 100 95 47 43
100 100 100 100 98 99 84 91 90 92 67 62 62 55 60 47 43 39 39 52 46 41 29 27 26 26 27 40 30 22 20 20 36 48 100 100 100 100 100 100 99 100 85 76 58 44 51 42 59
100 100 100 100 100 94 79 86 87 65 69 60 56 59 52 53 39 42 43 40 40 28 26 29 26 28 42 39 23 22 22 24 89 58 98 100 100 89 100 100 98 100 100 96 68 49 71 66 52
100 100 100 100 90 86 82 73 64 71 66 62 52 58 98 67 49 52 38 37 27 24 25 28 30 49 48 27 22 20 21 46 100 93 92 100 100 89 96 100 91 100 100 69 78 51 90 71 64
100 100 100 100 100 100 100 89 75 62 54 50 89 100 78 52 52 41 37 31 23 22 26 27 54 59 30 24 22 19 40 86 93 100 100 95 78 98 68 99 100 90 87 100 72 73 97 100 84
100 100 100 100 100 74 60 72 60 75 100 100 100 94 55 59 46 37 30 24 22 24 26 53 62 33 25 23 18 32 76 91 78 100 99 93 84 82 92 87 100 100 95 90 62 96 100 100 100
100 100 100 100 100 100 100 100 100 100 100 100 96 85 46 40 42 34 25 21 23 26 48 68 33 25 22 20 18 55 83 82 83 100 100 91 100 100 100 100 100 100 100 74 97 100 100 100 100
100 100 100 100 100 100 100 100 100 100 93 86 70 49 44 47 43 24 21 22 29 44 75 36 28 22 20 20 24 75 84 92 97 100 100 96 100 100 100 100 100 100 100 90 100 100 100 100 94
100 100 100 100 96 92 68 70 83 84 85 71 60 43 44 46 37 24 21 31 32 71 43 31 24 22 20 28 37 80 96 93 100 100 100 100 100 96 100 100 100 92 100 100 100 100 100 90 82
91 96 99 93 71 73 67 58 62 63 55 48 41 44 55 38 32 22 24 34 56 56 34 26 22 21 22 28 44 88 100 100 100 100 100 100 100 96 76 100 100 100 100 100 100 96 100 100 100
100 100 96 87 86 80 84 62 65 68 69 74 50 68 49 31 23 20 36 51 71 39 29 24 23 21 21 21 48 84 99 100 100 100 100 100 74 100 100 71 97 100 100 100 100 100 100 100 100
99 88 87 72 79 64 66 61 63 64 69 76 50 53 33 26 20 26 51 71 45 33 26 24 26 26 22 20 28 65 98 100 93 100 100 88 100 100 100 100 100 100 100 100 100 100 100 100 100
97 98 87 73 72 80 87 82 75 86 90 65 51 38 27 21 25 38 64 75 39 29 26 25 31 33 30 25 24 83 87 100 100 100 100 86 100 100 100 100 100 100 100 97 90 100 100 100 100
100 100 89 74 82 82 98 84 69 78 80 66 36 34 23 24 41 43 95 50 35 29 28 28 36 42 35 37 29 58 96 100 100 99 100 98 100 100 100 100 100 100 100 100 98 90 80 87 90
99 95 94 78 70 82 95 83 72 84 70 59 40 31 26 48 41 66 96 43 34 31 32 32 35 44 46 40 33 58 99 99 100 100 100 99 91 86 96 100 100 100 100 100 93 77 80 88 100
100 95 83 82 93 92 92 88 88 79 70 49 41 30 62 50 39 92 73 43 41 34 38 42 40 47 59 53 51 35 68 100 100 100 100 100 100 98 100 82 78 78 77 93 100 100 100 100 98
92 86 77 77 93 78 79 95 89 80 67 45 39 44 100 61 44 89 65 48 42 37 49 55 51 48 67 68 64 56 34 37 100 100 100 100 100 100 100 100 100 100 100 100 100 100 100 100 96

GFSSGP_250_rhum_090.txt.gz
RH
64 62 56 55 58 62 70 65 60 55 45 43 41 48 52 45 42 37 38 37 38 33 33 28 22 22 20 19 16 14 11 10 10 9 9 8 8 8 8 8 8 8 8 8 8 8 9 11 12
56 57 55 52 58 67 86 86 74 65 60 53 51 59 64 54 53 53 44 41 46 41 38 29 27 28 23 20 17 16 14 12 13 11 11 10 10 9 9 9 9 9 9 8 9 8 9 10 10
67 65 64 54 47 61 100 84 72 72 67 69 70 79 71 66 67 54 42 44 52 43 38 31 38 32 24 22 22 21 16 14 14 13 12 11 14 15 12 10 10 9 10 9 10 10 10 10 10
72 70 69 62 53 91 100 97 74 79 83 82 92 88 86 72 60 53 45 43 54 48 39 42 41 30 26 26 31 24 17 16 17 12 13 15 13 21 24 18 15 12 13 15 15 19 22 19 16
87 76 78 64 66 97 100 100 100 82 91 100 100 84 82 65 66 57 46 41 52 55 45 48 36 31 36 42 34 25 19 18 18 14 13 14 16 16 22 36 23 15 16 75 63 38 25 25 44
83 76 75 74 95 94 100 93 100 100 100 100 100 97 82 69 68 60 49 42 59 68 53 49 41 38 40 37 35 28 21 20 17 20 24 22 16 27 33 34 49 39 34 99 94 96 51 52 77
92 87 90 87 97 100 100 91 100 100 100 99 100 100 94 74 80 72 46 44 62 77 55 46 41 43 40 43 38 29 22 19 18 21 32 57 87 92 71 74 90 74 64 100 100 86 96 79 69
90 84 93 96 100 100 100 100 100 98 89 94 100 94 85 98 88 71 50 51 66 64 58 54 41 42 44 40 36 26 23 18 16 20 28 26 30 45 46 39 100 98 100 97 100 85 92 100 87
85 90 94 100 100 100 100 100 100 100 100 100 100 97 92 96 86 72 52 58 66 66 71 61 47 44 43 40 33 27 24 18 18 20 33 36 54 67 66 79 100 100 100 100 100 100 100 100 100
86 89 100 100 100 100 98 88 87 100 100 100 100 98 93 89 91 74 66 65 63 61 77 63 50 45 42 38 34 27 25 19 20 21 23 31 50 25 16 37 100 100 100 100 100 100 100 100 100
88 99 100 100 100 100 100 99 96 95 100 100 100 96 88 100 99 81 67 53 53 68 70 58 51 42 38 36 33 26 25 20 22 28 28 21 16 19 30 45 100 100 100 100 100 100 100 100 93
93 100 100 100 100 100 100 100 99 100 100 100 100 100 99 99 85 71 78 67 69 60 58 52 46 42 35 29 26 23 23 20 22 26 21 22 41 44 80 62 100 100 100 100 91 100 99 100 100
100 100 100 100 100 100 100 100 100 100 100 100 100 100 98 62 58 66 73 72 63 59 58 48 44 36 27 25 30 25 21 22 26 26 18 40 98 88 100 100 100 100 100 100 69 72 85 100 100
99 100 100 98 100 100 100 100 100 100 100 100 100 100 82 65 76 94 78 58 63 52 54 47 35 38 29 34 26 23 21 24 25 24 17 22 100 100 100 100 100 100 100 100 75 70 99 100 100
100 100 100 97 100 100 100 100 100 100 96 88 100 98 91 82 73 81 61 49 42 48 43 36 41 29 32 28 24 22 23 31 27 22 16 34 100 99 100 100 100 100 100 100 78 66 94 100 86
100 100 100 100 100 100 96 96 98 92 94 96 92 84 82 82 62 61 62 48 47 36 38 43 37 34 27 22 22 24 27 32 25 20 18 40 100 100 100 100 100 100 100 100 98 66 83 87 66
100 100 100 100 100 100 100 100 100 100 98 98 91 91 88 87 75 58 54 45 37 49 51 38 34 28 22 22 22 27 34 28 20 17 22 62 100 100 100 100 100 100 100 100 97 86 75 75 60
100 100 100 100 100 100 100 100 100 100 100 100 99 88 86 85 85 65 47 45 47 47 44 33 30 23 23 22 26 34 33 23 18 19 86 88 93 100 100 100 100 100 100 100 87 87 64 58 71
100 100 100 100 100 100 100 100 100 100 100 100 100 95 99 88 62 51 50 58 60 51 31 33 24 23 22 26 33 32 24 20 17 38 100 89 100 100 100 89 97 100 100 100 100 86 68 75 89
100 100 100 100 100 100 100 100 100 100 100 100 90 85 89 78 50 66 88 93 71 41 37 28 23 22 26 33 31 22 20 19 28 79 98 100 100 89 94 90 96 100 100 99 98 97 72 54 99
100 100 100 100 100 100 100 100 100 94 98 100 100 100 100 100 96 89 85 67 42 34 33 22 23 30 32 28 22 20 20 22 64 85 100 94 96 100 100 100 100 98 100 92 100 100 77 99 94
100 100 100 100 100 100 100 100 100 100 100 100 100 100 100 100 100 81 59 48 28 40 25 23 36 33 30 23 21 21 20 46 85 92 100 99 100 100 100 100 100 100 100 100 100 100 72 100 100
100 100 100 100 100 100 98 100 100 100 100 100 89 80 75 71 64 56 51 33 34 34 25 33 41 34 26 22 21 24 30 64 85 99 100 100 100 91 100 100 100 100 100 100 100 100 100 100 100
100 100 100 100 89 91 95 100 94 100 100 94 83 77 77 65 56 46 40 31 36 29 31 58 36 30 24 21 21 30 67 90 99 100 100 100 94 99 100 100 100 100 100 100 99 78 74 100 100
100 100 100 100 97 100 98 88 72 76 86 92 73 62 52 56 56 45 37 33 28 28 70 46 34 26 22 19 19 40 69 100 84 100 100 100 100 100 82 100 100 95 86 97 100 100 100 100 98
100 100 100 100 99 86 99 100 81 74 74 64 58 48 48 57 56 44 29 28 28 39 89 39 28 26 20 18 20 35 68 100 72 98 100 100 100 100 50 96 100 96 99 100 100 100 100 99 90
92 100 100 100 100 100 97 91 87 95 76 63 54 51 66 55 49 34 30 27 26 61 89 32 29 25 21 29 24 28 68 100 91 100 98 100 98 86 84 69 78 100 99 100 97 86 88 100 100
98 100 99 85 76 87 85 80 78 76 66 57 52 67 61 62 50 33 27 27 37 86 67 32 33 30 22 38 35 35 64 100 100 93 100 100 100 95 100 63 100 100 100 100 100 100 99 88 70
100 100 100 98 98 100 100 93 85 76 71 59 57 69 68 74 37 28 30 31 48 100 47 34 35 35 27 34 50 46 78 100 100 100 86 100 100 77 100 100 100 100 100 100 100 100 100 92 88
99 100 100 98 99 100 100 98 95 92 87 66 70 68 69 59 37 33 34 56 62 95 47 34 41 39 34 34 50 50 72 100 100 100 99 91 100 100 66 100 100 100 100 98 100 100 100 95 81

GFSSGP_250_rhum_096.txt.gz
RH
84 70 65 67 67 54 62 70 72 82 54 61 56 55 57 59 30 25 28 23 26 28 28 29 34 30 35 36 34 29 27 28 26 24 22 20 19 17 15 17 27 22 16 12 11 10 8 7 7
91 85 71 80 64 56 80 80 85 100 54 64 79 83 80 74 40 33 34 35 33 33 32 34 38 43 45 47 38 33 30 32 32 24 25 25 22 20 17 17 20 22 16 12 12 13 12 9 8
32 55 71 68 69 85 88 95 90 86 59 70 78 95 82 82 62 45 52 41 41 42 39 38 42 46 48 50 43 38 33 34 31 30 29 26 26 20 18 19 25 42 44 26 14 12 21 18 15
23 19 25 38 66 61 81 79 98 74 47 77 74 76 73 65 66 54 55 54 47 48 55 46 49 45 48 49 51 43 42 37 34 31 32 32 29 23 20 36 58 48 48 50 51 36 30 35 33
30 29 23 21 23 63 80 97 100 85 79 65 71 72 72 75 67 65 64 66 94 99 70 72 77 85 53 59 62 57 46 40 36 40 39 40 35 25 16 36 35 66 50 39 35 57 36 29 34
36 35 24 24 25 45 71 76 76 93 73 66 64 91 81 69 74 71 95 100 97 67 84 86 80 61 63 82 84 65 50 42 42 42 40 30 29 25 28 40 24 58 85 86 76 58 44 50 39
56 39 31 29 29 32 82 100 87 67 78 100 85 98 97 72 67 75 93 99 100 100 78 59 80 96 80 69 81 63 54 50 39 36 37 35 34 29 31 17 40 45 79 80 75 77 81 64 39
51 55 36 34 38 31 64 100 70 95 100 100 73 85 91 77 66 78 100 100 100 98 100 100 70 59 58 65 67 65 55 50 46 39 35 30 29 19 25 23 34 61 82 79 99 89 100 99 100
93 89 90 93 56 37 50 66 61 92 100 99 99 68 72 86 98 90 100 99 100 100 92 80 83 84 63 74 67 63 63 48 47 34 32 35 34 20 21 30 38 97 93 94 100 100 100 93 100
99 86 100 97 94 57 36 30 40 61 100 99 75 78 66 63 100 97 100 99 100 100 87 97 99 90 75 86 81 70 55 47 43 30 30 34 28 20 19 20 24 91 84 97 100 90 97 100 100
100 99 94 72 63 76 48 34 35 66 73 86 79 71 73 69 84 99 100 100 100 100 100 99 100 100 92 100 82 65 51 45 43 32 32 33 24 23 22 24 44 86 99 96 100 91 98 100 100
77 96 92 89 57 66 47 34 34 44 90 76 100 100 100 97 78 99 100 100 100 95 66 81 100 100 100 94 78 66 45 45 36 34 36 32 24 24 23 24 36 100 97 91 100 100 100 100 100
70 92 85 100 84 60 51 41 33 44 100 78 76 95 100 100 100 94 84 72 75 82 99 100 100 100 100 94 80 59 48 46 34 34 36 30 24 24 22 24 32 98 100 100 100 100 100 100 100
83 82 78 76 94 91 62 43 34 51 100 100 93 74 100 100 100 97 100 100 77 100 100 100 100 100 100 99 79 57 49 46 35 38 34 26 24 21 21 27 43 72 100 100 100 100 100 100 97
65 64 57 65 78 84 80 52 34 58 100 100 94 92 100 100 100 100 97 98 100 100 100 100 100 100 100 94 76 65 55 44 40 38 29 27 22 19 20 35 50 64 58 57 100 100 100 100 100
58 59 54 54 48 55 77 50 56 56 62 100 100 56 96 100 100 100 100 100 100 100 100 97 100 100 88 82 81 69 54 48 40 31 29 24 18 20 22 47 37 36 29 78 100 100 100 100 100
45 40 35 32 30 28 32 36 61 64 60 97 100 100 82 99 84 94 100 100 100 100 97 83 79 96 76 71 63 55 52 43 33 29 26 19 20 22 31 38 42 40 67 83 100 100 100 100 100
32 24 22 24 29 27 25 27 47 71 59 74 83 100 100 100 97 83 66 74 94 68 62 84 98 89 72 74 75 57 44 37 28 29 22 20 22 21 30 30 25 46 67 100 100 100 100 100 99
22 22 19 22 22 21 18 26 38 64 71 86 100 100 100 100 100 86 67 98 94 85 98 100 94 96 100 88 67 44 39 30 30 23 21 22 25 31 24 22 22 50 95 90 100 100 100 100 100
19 18 18 19 18 19 21 27 43 64 100 100 100 100 100 100 100 100 100 100 100 100 100 100 100 100 100 73 47 43 33 40 28 21 22 27 37 26 22 18 20 98 100 100 100 100 100 100 100
14 15 17 15 18 23 22 26 45 86 92 100 100 100 100 100 100 100 100 100 100 100 100 100 100 99 81 54 47 38 42 33 24 23 27 40 31 20 18 17 18 100 95 100 100 100 100 100 100
12 16 15 16 19 26 29 33 57 71 75 100 100 100 100 79 86 79 94 100 100 100 100 100 100 72 59 44 44 37 39 31 23 33 41 30 22 19 18 25 46 100 100 96 100 100 100 100 100
12 13 13 16 18 23 37 35 63 68 66 97 100 100 100 100 100 100 100 100 100 100 100 90 99 51 47 41 37 38 34 27 33 38 25 22 19 19 36 65 98 100 100 98 98 100 100 100 100
12 13 13 14 16 23 50 43 65 74 70 87 100 100 100 100 100 100 100 100 100 100 100 90 62 39 44 46 46 37 33 29 38 24 22 20 19 32 62 86 98 100 95 82 100 100 100 100 100
10 12 13 16 17 37 57 61 76 100 76 97 100 100 100 100 100 100 100 99 100 100 94 58 74 66 58 47 45 36 30 36 24 21 20 20 21 58 80 80 100 100 100 100 98 100 100 100 100
9 10 15 17 23 51 73 72 99 100 100 83 100 100 100 100 100 100 100 100 99 99 100 94 69 53 50 46 40 36 44 54 25 21 19 24 44 83 71 88 100 85 89 85 100 100 100 100 100
8 10 17 19 40 70 94 100 78 100 100 100 97 100 100 100 100 100 100 100 92 90 87 82 61 54 44 40 44 52 56 54 26 20 22 39 73 84 96 89 100 99 100 93 100 97 100 100 100
9 11 12 19 50 100 100 100 100 100 100 100 100 99 96 100 98 94 100 100 85 76 59 52 48 45 46 56 42 62 54 30 22 18 29 70 92 89 96 78 92 100 100 100 86 88 100 98 100
11 11 15 35 58 100 100 100 100 100 100 100 100 100 100 100 100 91 89 93 75 60 67 52 55 53 62 80 64 68 33 25 20 21 51 80 100 83 76 68 100 100 100 100 100 100 99 87 100
13 11 26 46 72 100 100 100 100 100 100 100 100 100 100 100 100 84 81 86 76 56 74 55 55 51 65 73 53 42 31 25 19 23 85 81 100 99 92 85 76 100 100 91 89 100 99 100 100

GFSSGP_250_rhum_099.txt.gz
RH
35 40 37 37 45 60 90 100 88 90 83 53 45 50 62 32 26 17 22 34 29 28 25 28 26 26 25 26 26 25 27 28 28 27 26 24 21 21 19 18 16 16 13 12 12 13 16 19 15
16 18 22 26 43 50 97 100 100 100 100 75 64 58 81 53 46 32 40 44 55 44 37 37 30 31 30 29 30 32 34 36 38 34 30 27 25 24 24 24 21 18 15 24 24 32 34 38 28
18 17 17 18 20 20 35 67 96 98 100 76 79 73 78 72 38 40 60 56 58 56 55 49 41 40 40 36 40 42 43 40 41 45 42 34 29 28 30 27 24 20 23 37 40 44 44 48 49
26 21 23 18 20 25 26 32 63 73 69 76 77 98 100 88 64 63 62 61 63 66 64 64 52 51 84 63 56 66 80 55 54 65 58 43 35 31 30 26 24 21 20 30 28 61 54 58 58
52 41 30 27 36 36 27 28 31 51 33 39 65 77 84 100 72 64 65 71 72 74 75 76 73 77 100 58 69 79 72 71 84 87 60 43 36 31 28 25 22 34 42 31 52 96 93 86 73
80 71 53 42 47 42 39 36 30 36 29 25 31 54 86 91 86 78 72 65 83 89 77 89 96 73 64 100 70 66 93 96 74 77 65 45 38 36 28 23 24 24 40 46 84 100 81 85 84
49 66 76 48 44 51 81 72 47 37 34 28 40 35 63 69 64 93 93 94 97 100 100 100 100 100 100 60 81 100 80 66 71 67 63 50 50 36 31 24 27 31 44 60 71 92 100 100 100
85 65 38 61 73 71 96 94 79 48 34 26 36 81 50 78 69 73 88 100 100 100 92 93 100 100 67 64 100 73 69 88 82 82 62 60 48 38 33 27 21 21 19 51 80 83 95 98 93
74 59 60 72 74 82 100 100 100 64 41 37 26 83 79 56 100 100 92 100 100 100 100 100 100 100 71 60 100 79 95 94 99 80 64 60 43 43 37 27 28 38 35 61 100 98 99 100 100
41 37 51 75 72 61 72 88 100 75 51 48 39 72 100 57 61 92 100 88 98 100 100 100 100 95 72 65 99 82 97 100 96 76 66 62 47 41 39 27 27 31 34 54 58 100 99 100 82
43 37 39 42 71 79 75 62 79 99 62 42 56 36 70 86 100 85 87 99 86 100 100 100 100 99 99 100 100 100 60 100 100 82 68 62 46 44 34 28 32 26 20 24 44 100 100 100 80
38 43 40 39 44 78 91 93 83 87 61 48 48 53 42 59 59 86 69 100 100 100 100 100 100 100 100 99 75 59 98 100 98 73 75 67 51 44 36 34 31 27 24 29 70 100 100 100 84
38 42 44 54 50 56 86 84 85 70 85 72 65 50 43 41 58 58 100 100 100 100 97 100 100 100 100 82 82 99 100 100 97 81 63 62 54 42 37 35 25 25 23 25 98 100 100 100 100
38 36 42 51 65 61 62 69 64 71 91 85 80 68 37 35 66 76 99 100 100 100 100 100 98 100 100 72 93 100 100 100 95 62 57 53 48 37 32 32 25 21 20 22 100 100 100 100 100
53 46 40 40 46 52 71 41 61 85 79 63 79 72 47 35 70 75 89 100 100 100 100 100 100 89 59 95 100 100 100 100 78 70 52 37 35 36 34 25 22 17 18 24 100 100 100 100 100
51 43 43 43 35 41 46 29 64 65 58 44 64 61 45 42 57 100 100 100 100 100 100 99 100 100 100 100 100 100 100 86 64 61 48 33 38 37 32 24 19 18 22 37 100 100 100 100 100
41 35 33 30 31 35 34 24 38 46 39 30 38 47 48 38 67 89 100 100 100 100 100 100 100 100 100 100 100 100 89 68 55 62 47 42 42 33 27 21 20 23 35 77 99 100 100 100 100
29 27 26 21 29 28 26 16 21 31 35 29 33 40 47 43 50 96 100 100 96 91 100 100 100 100 100 100 97 100 76 59 52 59 49 48 39 33 24 20 22 29 51 74 79 98 100 100 100
27 21 18 19 19 21 16 12 16 20 23 30 29 31 44 69 64 80 97 100 97 100 100 100 100 100 100 100 100 92 56 50 79 64 49 40 39 27 20 22 26 48 50 37 45 55 83 100 100
20 19 18 16 17 15 12 12 15 17 21 29 30 34 41 66 52 53 100 91 100 100 100 90 96 99 100 100 86 72 59 99 96 69 48 37 37 26 22 24 39 50 36 47 68 64 100 100 100
18 15 14 12 14 11 12 11 16 20 21 28 28 31 36 56 65 61 98 100 85 98 90 97 95 91 100 100 84 86 96 100 94 55 36 46 40 28 27 36 40 37 28 35 80 100 100 100 100
12 16 12 10 11 11 13 13 16 21 17 19 24 28 37 68 73 55 95 100 100 100 91 83 100 100 100 100 100 100 100 96 62 39 38 41 37 30 37 46 36 25 22 21 62 99 100 100 100
12 12 11 10 9 11 14 11 22 18 17 20 22 27 43 65 74 100 100 100 100 100 100 100 100 100 100 100 100 100 99 66 40 42 45 41 30 42 52 31 26 21 19 20 31 93 100 100 100
11 10 10 9 10 11 17 12 20 18 28 22 28 38 59 74 87 100 100 100 100 100 96 96 100 100 100 100 95 84 58 47 49 63 38 31 35 36 29 25 21 19 18 27 49 100 100 93 77
7 7 9 9 11 17 12 10 31 25 30 44 37 49 100 100 85 94 100 98 71 59 100 100 100 100 100 92 90 60 59 70 76 42 45 34 40 30 23 21 20 27 57 86 99 88 96 88 96
6 6 7 9 12 14 13 24 30 42 43 85 58 69 81 100 100 100 100 100 100 100 100 100 100 100 100 88 58 75 92 65 46 46 51 39 32 23 21 24 35 82 100 100 100 100 83 92 100
5 9 8 9 11 14 22 30 44 74 62 100 90 67 81 79 100 100 100 100 100 100 100 100 81 80 83 83 99 76 79 58 47 61 48 38 33 21 22 28 67 92 100 100 100 100 100 90 100
8 7 7 8 12 20 33 70 91 100 100 100 99 88 80 79 100 100 100 100 100 100 100 90 94 100 100 77 75 71 56 50 69 73 64 66 34 21 26 64 93 92 66 88 100 100 100 100 100
9 9 10 12 20 33 74 100 100 100 100 100 71 100 98 96 100 100 100 100 100 100 100 98 98 98 64 62 66 56 53 74 71 71 71 58 24 26 60 95 83 98 96 97 100 100 96 71 71
11 9 12 17 38 54 100 100 100 100 100 100 100 96 100 100 100 100 100 100 100 96 93 100 92 87 75 64 61 60 91 80 80 78 58 25 26 41 90 98 91 100 100 90 99 90 100 95 96

GFSSGP_250_rhum_102.txt.gz
RH
13 14 14 16 15 22 33 76 85 82 64 50 59 67 50 39 29 25 45 36 31 30 29 25 20 18 17 24 27 25 28 28 27 26 25 23 22 23 24 23 23 20 18 18 17 16 16 21 35
24 18 15 15 15 18 24 40 47 43 67 49 48 52 50 36 35 58 63 64 56 50 49 42 37 32 27 35 36 34 38 35 30 33 30 33 31 30 32 33 29 22 21 18 18 20 20 25 27
30 38 29 18 17 20 25 24 22 20 26 39 43 52 37 34 57 62 66 81 80 74 78 76 58 44 41 42 44 42 50 55 46 40 48 59 42 46 50 41 34 27 25 19 20 31 32 33 51
37 40 32 37 25 31 38 38 31 26 25 23 24 30 31 25 42 61 73 76 90 98 82 77 80 71 57 52 59 52 93 83 56 62 64 64 66 71 54 47 41 30 28 20 26 36 54 70 87
40 41 42 44 47 51 32 41 43 40 35 29 27 26 21 23 32 54 65 70 83 80 93 92 90 84 68 67 70 65 69 64 92 81 70 92 73 57 53 50 47 39 32 23 31 44 52 90 91
54 54 41 55 59 45 48 63 55 57 51 28 31 27 22 18 25 58 76 64 72 79 86 99 95 95 89 85 83 75 51 97 92 83 100 77 67 64 63 58 50 43 35 32 36 33 34 80 95
57 58 58 57 69 75 73 61 73 75 74 53 30 25 20 21 25 47 76 78 68 80 91 93 100 95 98 89 83 77 56 94 67 85 100 60 65 59 70 56 53 48 41 38 30 75 98 100 98
54 46 54 47 44 51 86 88 61 46 64 66 52 45 36 29 29 34 55 67 76 86 94 100 100 98 100 100 91 74 60 69 67 99 100 90 93 74 66 51 63 40 37 30 55 53 79 100 84
80 73 68 50 36 38 49 44 50 72 65 53 62 70 61 57 34 28 56 72 100 100 100 100 100 100 100 100 84 74 64 69 79 83 98 100 100 64 59 60 59 51 44 43 26 45 57 98 100
100 77 61 49 48 36 41 39 39 39 51 82 81 56 56 42 34 37 31 87 100 100 100 100 100 100 100 100 79 72 71 71 72 99 100 100 95 75 71 73 67 61 51 42 25 24 58 63 100
99 54 52 44 50 42 36 39 39 38 38 54 74 71 53 82 54 50 41 66 98 85 100 100 100 100 100 100 99 80 79 94 100 100 94 100 100 81 81 67 62 66 52 39 29 27 23 25 100
67 54 49 65 66 54 57 47 40 41 37 41 79 91 72 62 70 57 50 37 98 100 100 100 100 100 100 100 86 78 93 96 99 91 100 100 99 86 78 68 64 47 38 34 30 31 23 26 100
58 81 77 100 82 60 47 42 45 38 56 94 100 100 99 66 81 60 50 40 41 98 100 100 100 99 99 92 70 77 97 100 100 100 100 100 92 82 91 70 53 38 32 33 30 28 24 24 99
87 93 100 100 93 82 47 37 36 56 76 64 75 85 98 100 74 44 38 42 40 52 100 100 100 100 86 83 91 97 100 100 100 100 100 99 84 88 79 68 50 36 40 34 26 23 20 22 88
100 80 99 100 90 68 43 25 32 39 52 44 52 64 87 98 79 74 61 42 42 64 98 100 100 100 86 100 100 100 100 100 100 100 100 79 89 88 70 54 47 39 38 29 21 18 17 20 91
100 100 100 100 88 58 48 28 32 32 33 39 39 38 57 79 88 69 67 57 39 50 100 100 100 100 94 100 100 100 100 100 100 100 80 62 81 67 56 47 44 43 31 25 18 18 22 25 100
93 58 54 57 62 54 42 23 25 30 25 24 30 34 40 48 66 50 47 51 80 52 87 100 100 100 100 100 100 100 100 100 91 81 84 82 71 61 46 51 55 38 26 21 20 22 41 64 100
58 49 49 47 86 59 32 18 17 23 23 20 23 26 33 32 36 47 55 44 72 57 92 100 100 100 100 100 100 100 100 100 99 100 95 80 53 39 59 76 46 34 24 22 23 30 60 100 100
62 48 39 66 61 44 24 16 14 16 17 18 18 20 23 24 28 30 46 53 49 54 100 84 100 100 100 100 100 100 100 100 100 100 74 47 38 63 86 63 42 38 23 25 34 60 78 100 100
78 68 63 34 30 25 16 11 11 12 16 18 16 16 18 17 19 23 39 52 50 53 91 82 99 78 83 100 100 91 78 93 97 86 99 53 66 92 86 49 43 50 29 34 64 81 92 100 100
50 75 30 24 25 20 15 8 11 14 14 16 15 14 14 20 26 23 28 47 45 57 66 80 99 100 100 100 100 100 100 99 93 99 82 79 80 88 66 41 41 52 38 61 68 73 94 100 100
45 39 25 21 17 12 14 9 15 14 10 12 14 13 15 19 20 20 25 36 45 70 69 65 100 100 100 100 100 100 100 75 49 80 97 66 89 79 52 44 58 44 46 60 51 44 50 82 100
34 24 19 15 11 9 14 10 17 10 12 13 13 14 16 17 19 24 28 32 43 83 73 84 100 100 100 100 100 90 76 43 95 100 98 82 79 60 43 43 59 69 67 49 47 38 58 57 95
20 16 14 11 10 10 11 8 16 10 10 10 15 19 20 22 23 29 33 39 56 89 76 100 100 100 100 100 99 98 83 100 100 100 82 100 88 58 54 40 63 77 68 47 32 30 46 55 84
17 13 10 9 8 9 7 13 12 9 11 13 19 21 23 26 29 33 40 44 57 85 100 100 89 85 100 100 100 100 100 100 100 94 100 78 67 63 45 47 48 47 44 32 30 24 23 36 85
12 8 6 6 7 7 9 12 10 13 15 22 32 46 38 36 36 39 51 74 94 80 96 100 100 100 100 92 92 93 100 100 100 99 84 84 90 60 47 44 41 31 25 24 22 20 19 20 85
6 6 5 6 7 8 11 15 15 17 24 52 93 96 50 66 97 57 81 82 100 100 100 100 100 100 100 99 75 76 77 99 94 97 100 99 65 47 55 40 36 24 24 24 21 30 42 57 100
5 4 5 6 9 11 14 19 21 28 91 96 100 100 83 90 100 73 100 100 100 99 92 100 92 99 76 100 97 87 82 97 99 100 97 85 53 71 64 42 25 24 22 26 58 84 100 100 100
5 6 6 9 13 13 17 42 41 58 100 100 100 98 100 83 100 100 100 100 94 100 100 97 100 89 83 63 63 71 93 100 100 100 95 55 61 87 72 53 35 24 25 68 100 100 100 100 100
6 7 14 18 15 16 32 70 86 93 100 100 100 100 99 99 100 100 100 100 82 88 100 100 100 100 100 73 70 75 98 100 99 85 68 82 75 97 83 52 38 26 50 93 100 100 100 100 100

GFSSGP_250_rhum_105.txt.gz
RH
22 20 16 14 13 13 16 19 22 24 31 26 26 26 25 18 16 19 24 27 32 32 34 37 31 23 21 21 20 20 19 19 22 24 22 24 22 21 22 24 23 20 21 23 20 22 20 16 15
31 29 26 24 22 18 17 15 14 13 20 23 23 28 29 24 18 18 24 27 29 35 41 40 35 30 26 26 28 31 34 30 30 31 31 34 30 24 27 28 26 25 32 27 26 23 23 22 25
40 41 37 35 37 46 40 24 14 12 13 20 23 23 25 33 33 26 30 39 50 49 46 35 40 43 30 37 37 38 42 42 45 43 62 61 46 32 35 31 32 45 41 33 32 32 26 33 30
53 52 44 38 44 47 56 50 39 31 18 17 20 18 19 20 17 16 21 32 45 59 59 53 52 49 54 65 51 46 46 48 51 51 51 51 52 44 46 60 57 53 48 44 42 35 44 39 36
63 49 46 47 50 56 56 72 73 60 49 33 24 19 15 20 21 22 24 25 30 52 57 56 69 75 81 74 63 56 61 62 57 62 52 52 59 60 86 78 61 58 54 40 44 48 45 38 63
72 72 47 46 43 46 50 62 77 94 83 58 41 32 27 22 20 21 23 29 30 27 32 57 76 86 80 76 71 73 75 62 67 68 54 69 78 69 93 58 56 54 55 49 55 49 50 75 50
71 60 74 61 70 81 64 48 42 55 64 88 84 55 54 40 32 31 32 41 43 27 25 40 58 70 78 100 97 92 81 76 83 95 72 57 76 72 82 76 76 62 58 83 83 67 95 48 51
92 79 50 84 100 93 90 70 59 41 33 34 47 76 80 67 45 38 36 71 57 36 31 59 78 84 84 80 91 97 89 88 97 98 81 61 53 75 74 94 97 64 51 67 72 53 53 43 30
99 87 100 88 100 100 97 78 55 38 36 33 31 31 37 36 47 50 42 72 82 54 36 47 84 100 93 100 99 100 100 87 92 97 86 80 60 67 84 100 100 68 54 47 41 37 41 32 32
88 74 97 100 100 86 60 60 55 39 40 46 37 31 30 32 37 41 56 55 76 66 48 62 94 100 100 96 99 100 100 83 91 77 99 79 81 75 100 100 99 80 73 61 52 49 39 30 29
82 78 71 79 100 100 84 73 71 62 55 45 52 47 35 32 33 47 71 86 68 67 50 85 88 100 100 100 100 100 98 91 83 70 100 99 98 100 100 100 99 92 84 71 65 58 44 36 27
49 56 95 100 96 93 100 71 90 100 97 86 83 62 55 35 30 36 66 100 98 72 62 53 70 100 100 80 100 100 100 100 77 91 100 100 100 100 100 100 100 95 89 84 68 57 51 45 31
73 100 100 100 100 100 80 90 98 81 100 96 58 59 48 41 33 33 35 58 91 100 90 65 56 94 100 73 69 81 92 96 60 65 87 100 100 100 100 100 99 100 98 72 68 52 45 41 29
100 98 66 76 100 100 100 71 77 100 100 100 97 66 40 44 45 30 32 37 86 76 100 99 61 57 100 95 80 80 96 99 62 97 100 100 100 100 100 91 98 98 75 74 58 51 43 30 26
44 64 100 100 99 100 88 79 99 99 63 50 56 47 39 34 41 43 34 35 47 87 86 98 88 94 66 94 83 72 100 100 94 100 100 100 100 100 100 84 96 80 68 62 57 48 37 27 22
64 52 90 73 71 100 100 99 91 60 58 59 53 42 35 34 30 33 35 31 36 49 69 93 76 94 72 71 100 58 93 98 99 100 100 100 100 100 83 78 73 87 65 51 55 46 30 24 17
88 73 72 88 99 100 83 63 70 72 75 59 53 47 54 37 28 29 31 29 32 49 73 94 79 80 95 61 92 76 65 100 100 100 100 100 100 100 83 89 86 54 44 60 73 48 28 19 20
97 73 68 99 55 65 63 56 70 78 76 74 85 53 37 34 30 27 28 24 26 30 48 83 84 94 100 98 87 74 61 85 100 100 100 100 100 99 100 92 64 48 71 88 76 34 31 21 27
68 61 65 88 100 86 77 62 74 74 72 71 54 34 31 27 26 26 23 25 24 24 28 67 68 88 86 100 100 88 81 98 100 100 100 100 100 100 100 100 77 81 92 85 53 33 33 26 42
79 75 80 80 100 74 71 48 54 67 47 44 29 22 22 23 22 22 20 19 20 21 21 33 66 88 85 100 100 91 99 99 97 93 100 100 100 100 100 100 100 99 89 66 47 47 39 40 70
86 100 82 80 99 77 58 36 43 30 28 22 16 14 14 12 14 14 14 15 14 14 19 28 62 68 81 100 100 95 74 71 67 76 94 99 98 88 100 100 100 85 77 72 44 49 53 86 92
71 89 65 62 72 55 71 26 22 33 14 13 14 10 8 9 10 9 11 14 14 13 16 24 51 72 91 100 100 98 70 68 96 79 79 100 96 83 98 100 100 90 63 76 47 48 66 95 100
76 73 74 71 49 34 31 37 9 21 12 10 8 7 10 12 11 11 12 14 14 14 19 25 39 76 94 100 100 100 100 100 100 100 100 92 76 87 100 100 92 75 84 59 58 55 83 79 87
76 70 60 45 31 14 33 12 16 10 11 9 8 12 14 12 12 14 14 13 13 15 23 30 40 79 90 100 100 100 100 95 100 100 100 76 66 85 100 99 76 79 55 54 58 68 83 66 52
60 43 36 23 18 14 16 13 10 9 8 8 11 11 13 14 15 17 18 17 18 20 27 32 46 78 100 96 100 100 100 97 96 100 81 58 65 94 98 88 92 74 59 65 51 73 65 58 60
54 31 23 13 17 15 12 8 9 8 8 11 12 12 13 17 19 22 22 20 21 24 28 34 54 89 100 100 100 100 100 100 83 66 94 72 78 86 100 99 76 66 60 48 58 74 54 48 39
23 18 16 15 13 9 8 8 8 8 12 14 17 17 18 21 26 32 29 31 35 34 34 38 54 86 100 100 100 100 100 74 62 86 100 99 86 100 100 66 64 58 53 47 57 62 48 36 34
14 15 12 10 8 8 7 7 9 12 18 30 31 37 24 32 30 38 42 42 42 39 40 45 66 96 100 100 100 95 100 80 81 99 93 100 99 100 96 95 67 60 52 52 43 34 27 25 25
12 9 8 8 8 7 7 8 9 18 60 70 82 63 68 54 32 80 61 47 50 50 56 69 98 100 100 100 88 100 100 100 100 87 96 100 100 100 100 85 65 46 71 49 39 26 24 24 24
8 7 8 8 8 9 13 14 16 46 98 100 100 61 79 97 96 69 58 52 61 56 64 81 100 100 100 100 100 100 100 100 88 96 100 100 100 100 100 80 42 64 79 43 26 25 24 32 48